Wetterstion Hohenwalde 74m ?ber NN
Wetterdaten: Samstag / Sonntag, 06.09.2026
Datum Zeit Temp. A. 5cm TDach Feuchte A. Luftdruck Regen Wind Richtung Richtung Sonnenschein Solar Taupunkt Windb?en
05.09.2026 09:00 16,8 ?C 19,8 ?C 23,2 ?C 78 % 1013,8 hPa 0,0 l/m? 14,4 km/h (3 Bft) W 268 ? 2 min 469 W/m? 12,9 ?C 27,4 km/h (5 Bft)
05.09.2026 09:03 16,9 ?C 20,0 ?C 23,5 ?C 78 % 1013,8 hPa 0,0 l/m? 14,3 km/h (3 Bft) W 263 ? 3 min 237 W/m? 13,0 ?C 22,5 km/h (4 Bft)
05.09.2026 09:06 16,9 ?C 19,4 ?C 23,1 ?C 78 % 1013,9 hPa 0,0 l/m? 9,0 km/h (2 Bft) W 269 ? 0 min 163 W/m? 13,0 ?C 16,1 km/h (3 Bft)
05.09.2026 09:09 16,8 ?C 19,6 ?C 23,9 ?C 78 % 1014,0 hPa 0,0 l/m? 12,9 km/h (3 Bft) W-SW 238 ? 3 min 321 W/m? 12,9 ?C 25,7 km/h (4 Bft)
05.09.2026 09:12 16,8 ?C 20,1 ?C 23,0 ?C 78 % 1013,9 hPa 0,0 l/m? 14,9 km/h (3 Bft) W-SW 258 ? 0 min 128 W/m? 12,9 ?C 29,0 km/h (5 Bft)
05.09.2026 09:15 16,8 ?C 21,4 ?C 25,7 ?C 78 % 1013,9 hPa 0,0 l/m? 16,1 km/h (3 Bft) W-SW 257 ? 3 min 441 W/m? 12,9 ?C 27,4 km/h (5 Bft)
05.09.2026 09:18 16,9 ?C 21,5 ?C 25,0 ?C 78 % 1013,9 hPa 0,0 l/m? 12,5 km/h (2 Bft) W-SW 256 ? 3 min 451 W/m? 13,0 ?C 25,7 km/h (4 Bft)
05.09.2026 09:21 17,1 ?C 22,1 ?C 26,3 ?C 78 % 1013,9 hPa 0,0 l/m? 13,6 km/h (3 Bft) W 259 ? 3 min 451 W/m? 13,2 ?C 22,5 km/h (4 Bft)
05.09.2026 09:24 17,3 ?C 23,4 ?C 27,2 ?C 78 % 1013,9 hPa 0,0 l/m? 14,1 km/h (3 Bft) W-SW 257 ? 3 min 461 W/m? 13,4 ?C 25,7 km/h (4 Bft)
05.09.2026 09:27 17,5 ?C 23,9 ?C 27,0 ?C 76 % 1013,9 hPa 0,0 l/m? 16,2 km/h (3 Bft) W 261 ? 3 min 472 W/m? 13,2 ?C 29,0 km/h (5 Bft)
05.09.2026 09:30 17,5 ?C 24,3 ?C 26,3 ?C 76 % 1013,9 hPa 0,0 l/m? 14,0 km/h (3 Bft) W 262 ? 3 min 460 W/m? 13,2 ?C 25,7 km/h (4 Bft)
05.09.2026 09:33 17,6 ?C 25,1 ?C 27,9 ?C 76 % 1014,0 hPa 0,0 l/m? 11,9 km/h (2 Bft) W-SW 257 ? 3 min 473 W/m? 13,3 ?C 22,5 km/h (4 Bft)
05.09.2026 09:36 17,7 ?C 24,8 ?C 28,3 ?C 76 % 1014,0 hPa 0,0 l/m? 12,2 km/h (2 Bft) W-SW 245 ? 3 min 486 W/m? 13,4 ?C 25,7 km/h (4 Bft)
05.09.2026 09:39 17,9 ?C 25,6 ?C 27,6 ?C 76 % 1014,0 hPa 0,0 l/m? 15,9 km/h (3 Bft) W-SW 257 ? 3 min 495 W/m? 13,6 ?C 24,1 km/h (4 Bft)
05.09.2026 09:42 18,1 ?C 24,9 ?C 25,7 ?C 75 % 1014,0 hPa 0,0 l/m? 17,8 km/h (3 Bft) W 269 ? 3 min 453 W/m? 13,6 ?C 32,2 km/h (5 Bft)
05.09.2026 09:45 18,0 ?C 24,0 ?C 25,1 ?C 75 % 1014,0 hPa 0,0 l/m? 12,0 km/h (2 Bft) W 266 ? 3 min 404 W/m? 13,5 ?C 20,9 km/h (4 Bft)
05.09.2026 09:48 18,1 ?C 23,8 ?C 25,6 ?C 75 % 1014,0 hPa 0,0 l/m? 14,7 km/h (3 Bft) W-SW 244 ? 3 min 474 W/m? 13,6 ?C 25,7 km/h (4 Bft)
05.09.2026 09:51 18,1 ?C 22,9 ?C 24,4 ?C 75 % 1014,0 hPa 0,0 l/m? 8,8 km/h (2 Bft) W-SW 257 ? 3 min 339 W/m? 13,6 ?C 20,9 km/h (4 Bft)
05.09.2026 09:54 18,2 ?C 22,2 ?C 23,5 ?C 76 % 1014,1 hPa 0,0 l/m? 12,7 km/h (3 Bft) W 268 ? 3 min 302 W/m? 13,9 ?C 20,9 km/h (4 Bft)
05.09.2026 09:57 18,1 ?C 21,6 ?C 22,6 ?C 75 % 1014,1 hPa 0,0 l/m? 11,7 km/h (2 Bft) W-SW 258 ? 3 min 305 W/m? 13,6 ?C 25,7 km/h (4 Bft)
05.09.2026 10:00 18,0 ?C 21,3 ?C 22,2 ?C 74 % 1014,1 hPa 0,0 l/m? 14,1 km/h (3 Bft) W 260 ? 3 min 309 W/m? 13,3 ?C 24,1 km/h (4 Bft)
05.09.2026 10:03 17,8 ?C 20,8 ?C 21,7 ?C 74 % 1014,1 hPa 0,0 l/m? 14,4 km/h (3 Bft) W 262 ? 0 min 262 W/m? 13,1 ?C 22,5 km/h (4 Bft)
05.09.2026 10:06 17,7 ?C 20,7 ?C 21,2 ?C 74 % 1014,1 hPa 0,0 l/m? 18,1 km/h (3 Bft) W 267 ? 3 min 300 W/m? 13,0 ?C 32,2 km/h (5 Bft)
05.09.2026 10:09 17,7 ?C 20,7 ?C 22,0 ?C 75 % 1014,2 hPa 0,0 l/m? 11,9 km/h (2 Bft) W-SW 255 ? 0 min 291 W/m? 13,2 ?C 20,9 km/h (4 Bft)
05.09.2026 10:12 17,8 ?C 20,6 ?C 22,2 ?C 75 % 1014,2 hPa 0,0 l/m? 12,7 km/h (3 Bft) W 259 ? 0 min 304 W/m? 13,3 ?C 24,1 km/h (4 Bft)
05.09.2026 10:15 17,9 ?C 20,8 ?C 21,7 ?C 74 % 1014,2 hPa 0,0 l/m? 15,0 km/h (3 Bft) W 265 ? 3 min 321 W/m? 13,2 ?C 29,0 km/h (5 Bft)
05.09.2026 10:18 18,0 ?C 20,9 ?C 21,5 ?C 75 % 1014,2 hPa 0,0 l/m? 13,5 km/h (3 Bft) W-SW 254 ? 0 min 286 W/m? 13,5 ?C 19,3 km/h (3 Bft)
05.09.2026 10:21 18,0 ?C 20,7 ?C 21,0 ?C 74 % 1014,3 hPa 0,0 l/m? 15,6 km/h (3 Bft) W 260 ? 0 min 268 W/m? 13,3 ?C 27,4 km/h (5 Bft)
05.09.2026 10:24 17,9 ?C 20,3 ?C 20,5 ?C 74 % 1014,3 hPa 0,0 l/m? 16,4 km/h (3 Bft) W-SW 257 ? 0 min 230 W/m? 13,2 ?C 29,0 km/h (5 Bft)
05.09.2026 10:27 17,8 ?C 20,0 ?C 20,4 ?C 74 % 1014,4 hPa 0,0 l/m? 16,4 km/h (3 Bft) W-SW 245 ? 0 min 271 W/m? 13,1 ?C 33,8 km/h (5 Bft)
05.09.2026 10:30 17,8 ?C 19,9 ?C 20,8 ?C 74 % 1014,4 hPa 0,0 l/m? 14,1 km/h (3 Bft) SW 229 ? 0 min 260 W/m? 13,1 ?C 27,4 km/h (5 Bft)
05.09.2026 10:33 17,9 ?C 20,1 ?C 20,8 ?C 74 % 1014,4 hPa 0,0 l/m? 13,7 km/h (3 Bft) W-SW 239 ? 0 min 270 W/m? 13,2 ?C 24,1 km/h (4 Bft)
05.09.2026 10:36 17,9 ?C 20,3 ?C 21,5 ?C 74 % 1014,4 hPa 0,0 l/m? 13,0 km/h (3 Bft) W 259 ? 0 min 285 W/m? 13,2 ?C 20,9 km/h (4 Bft)
05.09.2026 10:39 18,0 ?C 20,4 ?C 22,7 ?C 74 % 1014,4 hPa 0,0 l/m? 12,1 km/h (2 Bft) W-SW 258 ? 3 min 437 W/m? 13,3 ?C 20,9 km/h (4 Bft)
05.09.2026 10:42 18,2 ?C 20,6 ?C 25,3 ?C 74 % 1014,4 hPa 0,0 l/m? 9,1 km/h (2 Bft) W-SW 250 ? 3 min 592 W/m? 13,5 ?C 17,7 km/h (3 Bft)
05.09.2026 10:45 18,6 ?C 21,0 ?C 26,6 ?C 73 % 1014,4 hPa 0,0 l/m? 13,8 km/h (3 Bft) W 270 ? 3 min 483 W/m? 13,7 ?C 27,4 km/h (5 Bft)
05.09.2026 10:48 18,8 ?C 20,4 ?C 23,8 ?C 71 % 1014,4 hPa 0,0 l/m? 17,2 km/h (3 Bft) W 261 ? 3 min 461 W/m? 13,4 ?C 33,8 km/h (5 Bft)
05.09.2026 10:51 18,7 ?C 20,4 ?C 24,0 ?C 71 % 1014,4 hPa 0,0 l/m? 17,0 km/h (3 Bft) W 260 ? 3 min 445 W/m? 13,3 ?C 25,7 km/h (4 Bft)
05.09.2026 10:54 18,8 ?C 20,7 ?C 23,4 ?C 71 % 1014,5 hPa 0,0 l/m? 17,5 km/h (3 Bft) W-SW 246 ? 3 min 401 W/m? 13,4 ?C 29,0 km/h (5 Bft)
05.09.2026 10:57 18,9 ?C 21,0 ?C 25,2 ?C 71 % 1014,4 hPa 0,0 l/m? 9,9 km/h (2 Bft) W-SW 255 ? 3 min 567 W/m? 13,5 ?C 20,9 km/h (4 Bft)
05.09.2026 11:00 19,0 ?C 21,3 ?C 24,1 ?C 71 % 1014,5 hPa 0,0 l/m? 16,2 km/h (3 Bft) W 259 ? 3 min 455 W/m? 13,6 ?C 33,8 km/h (5 Bft)
05.09.2026 11:03 18,9 ?C 20,9 ?C 22,5 ?C 71 % 1014,5 hPa 0,0 l/m? 15,6 km/h (3 Bft) SW 236 ? 0 min 301 W/m? 13,5 ?C 22,5 km/h (4 Bft)
05.09.2026 11:06 18,7 ?C 20,9 ?C 22,2 ?C 72 % 1014,5 hPa 0,0 l/m? 12,2 km/h (2 Bft) W-SW 246 ? 0 min 340 W/m? 13,5 ?C 22,5 km/h (4 Bft)
05.09.2026 11:09 18,9 ?C 21,8 ?C 25,2 ?C 72 % 1014,5 hPa 0,0 l/m? 14,8 km/h (3 Bft) W-SW 250 ? 3 min 636 W/m? 13,7 ?C 25,7 km/h (4 Bft)
05.09.2026 11:12 19,1 ?C 21,2 ?C 22,4 ?C 70 % 1014,5 hPa 0,0 l/m? 16,0 km/h (3 Bft) W-SW 241 ? 0 min 243 W/m? 13,5 ?C 24,1 km/h (4 Bft)
05.09.2026 11:15 18,8 ?C 20,5 ?C 21,1 ?C 69 % 1014,5 hPa 0,0 l/m? 16,8 km/h (3 Bft) W-SW 248 ? 0 min 224 W/m? 13,0 ?C 29,0 km/h (5 Bft)
05.09.2026 11:18 18,6 ?C 20,5 ?C 22,3 ?C 70 % 1014,5 hPa 0,0 l/m? 17,7 km/h (3 Bft) W-SW 249 ? 3 min 458 W/m? 13,0 ?C 32,2 km/h (5 Bft)
05.09.2026 11:21 18,7 ?C 20,1 ?C 20,8 ?C 70 % 1014,6 hPa 0,0 l/m? 19,0 km/h (3 Bft) W-SW 257 ? 0 min 187 W/m? 13,1 ?C 32,2 km/h (5 Bft)
05.09.2026 11:24 18,5 ?C 19,5 ?C 20,3 ?C 70 % 1014,5 hPa 0,0 l/m? 14,8 km/h (3 Bft) W 264 ? 0 min 175 W/m? 12,9 ?C 27,4 km/h (5 Bft)
05.09.2026 11:27 18,3 ?C 19,1 ?C 20,3 ?C 70 % 1014,6 hPa 0,0 l/m? 19,1 km/h (3 Bft) W-SW 245 ? 0 min 255 W/m? 12,7 ?C 32,2 km/h (5 Bft)
05.09.2026 11:30 18,4 ?C 19,8 ?C 22,8 ?C 70 % 1014,6 hPa 0,0 l/m? 16,3 km/h (3 Bft) W-SW 253 ? 3 min 528 W/m? 12,8 ?C 32,2 km/h (5 Bft)
05.09.2026 11:36 19,0 ?C 21,3 ?C 24,3 ?C 69 % 1014,5 hPa 0,0 l/m? 17,0 km/h (3 Bft) W 265 ? 6 min 834 W/m? 13,2 ?C 27,4 km/h (5 Bft)
05.09.2026 11:39 19,4 ?C 21,5 ?C 23,3 ?C 67 % 1014,4 hPa 0,0 l/m? 17,6 km/h (3 Bft) W-SW 246 ? 0 min 358 W/m? 13,1 ?C 32,2 km/h (5 Bft)
05.09.2026 11:42 19,3 ?C 21,0 ?C 22,9 ?C 68 % 1014,5 hPa 0,0 l/m? 15,6 km/h (3 Bft) W-SW 258 ? 3 min 479 W/m? 13,2 ?C 24,1 km/h (4 Bft)
05.09.2026 11:45 19,2 ?C 20,3 ?C 21,1 ?C 67 % 1014,5 hPa 0,0 l/m? 17,6 km/h (3 Bft) W-SW 254 ? 0 min 138 W/m? 12,9 ?C 33,8 km/h (5 Bft)
05.09.2026 11:48 18,8 ?C 19,6 ?C 20,2 ?C 67 % 1014,6 hPa 0,0 l/m? 21,6 km/h (4 Bft) W-SW 249 ? 0 min 193 W/m? 12,5 ?C 33,8 km/h (5 Bft)
05.09.2026 11:51 18,7 ?C 20,1 ?C 22,2 ?C 67 % 1014,5 hPa 0,0 l/m? 19,8 km/h (3 Bft) W 274 ? 3 min 602 W/m? 12,4 ?C 46,7 km/h (6 Bft)
05.09.2026 11:54 19,2 ?C 21,0 ?C 22,7 ?C 65 % 1014,6 hPa 0,0 l/m? 22,9 km/h (4 Bft) W 269 ? 3 min 587 W/m? 12,5 ?C 49,9 km/h (7 Bft)
05.09.2026 11:57 19,4 ?C 21,4 ?C 22,9 ?C 65 % 1014,7 hPa 0,0 l/m? 21,8 km/h (4 Bft) W 269 ? 3 min 611 W/m? 12,6 ?C 37,0 km/h (5 Bft)
05.09.2026 12:00 19,5 ?C 21,5 ?C 21,8 ?C 64 % 1014,6 hPa 0,0 l/m? 22,0 km/h (4 Bft) W 266 ? 0 min 322 W/m? 12,5 ?C 37,0 km/h (5 Bft)
05.09.2026 12:03 19,4 ?C 21,4 ?C 22,3 ?C 64 % 1014,6 hPa 0,0 l/m? 20,3 km/h (4 Bft) W-SW 255 ? 3 min 609 W/m? 12,4 ?C 45,1 km/h (6 Bft)
05.09.2026 12:06 19,7 ?C 22,3 ?C 23,8 ?C 64 % 1014,6 hPa 0,0 l/m? 17,9 km/h (3 Bft) W 265 ? 3 min 526 W/m? 12,7 ?C 41,8 km/h (6 Bft)
05.09.2026 12:09 19,8 ?C 21,7 ?C 22,3 ?C 63 % 1014,6 hPa 0,0 l/m? 20,0 km/h (4 Bft) W-SW 258 ? 0 min 379 W/m? 12,5 ?C 32,2 km/h (5 Bft)
05.09.2026 12:12 19,9 ?C 22,1 ?C 23,1 ?C 65 % 1014,6 hPa 0,0 l/m? 15,1 km/h (3 Bft) W 259 ? 0 min 301 W/m? 13,1 ?C 25,7 km/h (4 Bft)
05.09.2026 12:15 20,0 ?C 21,8 ?C 22,8 ?C 63 % 1014,6 hPa 0,0 l/m? 17,1 km/h (3 Bft) W 259 ? 3 min 463 W/m? 12,7 ?C 35,4 km/h (5 Bft)
05.09.2026 12:18 20,0 ?C 22,0 ?C 23,2 ?C 62 % 1014,6 hPa 0,0 l/m? 19,4 km/h (3 Bft) W-SW 252 ? 3 min 592 W/m? 12,5 ?C 29,0 km/h (5 Bft)
05.09.2026 12:21 20,2 ?C 22,9 ?C 24,4 ?C 62 % 1014,6 hPa 0,0 l/m? 14,5 km/h (3 Bft) W-SW 250 ? 3 min 877 W/m? 12,7 ?C 20,9 km/h (4 Bft)
05.09.2026 12:24 20,8 ?C 23,5 ?C 24,2 ?C 61 % 1014,5 hPa 0,0 l/m? 18,2 km/h (3 Bft) W 260 ? 3 min 691 W/m? 13,0 ?C 25,7 km/h (4 Bft)
05.09.2026 12:27 20,8 ?C 22,5 ?C 22,8 ?C 59 % 1014,5 hPa 0,0 l/m? 20,3 km/h (4 Bft) W-SW 239 ? 0 min 283 W/m? 12,5 ?C 45,1 km/h (6 Bft)
05.09.2026 12:30 20,4 ?C 22,7 ?C 22,9 ?C 60 % 1014,5 hPa 0,0 l/m? 20,3 km/h (4 Bft) W-SW 252 ? 3 min 616 W/m? 12,4 ?C 35,4 km/h (5 Bft)
05.09.2026 12:33 20,3 ?C 21,8 ?C 22,4 ?C 60 % 1014,5 hPa 0,0 l/m? 12,7 km/h (3 Bft) SW 231 ? 0 min 289 W/m? 12,3 ?C 27,4 km/h (5 Bft)
05.09.2026 12:36 20,1 ?C 22,2 ?C 23,3 ?C 62 % 1014,5 hPa 0,0 l/m? 17,0 km/h (3 Bft) SW 235 ? 3 min 778 W/m? 12,6 ?C 30,6 km/h (5 Bft)
05.09.2026 12:39 20,6 ?C 23,7 ?C 24,3 ?C 61 % 1014,4 hPa 0,0 l/m? 18,5 km/h (3 Bft) W-SW 248 ? 3 min 755 W/m? 12,8 ?C 29,0 km/h (5 Bft)
05.09.2026 12:42 20,7 ?C 23,2 ?C 23,4 ?C 60 % 1014,3 hPa 0,0 l/m? 15,7 km/h (3 Bft) SW 230 ? 0 min 267 W/m? 12,7 ?C 25,7 km/h (4 Bft)
05.09.2026 12:45 20,6 ?C 23,2 ?C 23,6 ?C 60 % 1014,3 hPa 0,0 l/m? 15,7 km/h (3 Bft) W-SW 255 ? 3 min 652 W/m? 12,6 ?C 27,4 km/h (5 Bft)
05.09.2026 12:48 20,9 ?C 23,2 ?C 24,5 ?C 61 % 1014,3 hPa 0,0 l/m? 13,4 km/h (3 Bft) W-SW 248 ? 3 min 716 W/m? 13,1 ?C 30,6 km/h (5 Bft)
05.09.2026 12:51 21,1 ?C 23,4 ?C 24,4 ?C 57 % 1014,3 hPa 0,0 l/m? 20,5 km/h (4 Bft) W-SW 237 ? 3 min 720 W/m? 12,2 ?C 32,2 km/h (5 Bft)
05.09.2026 12:54 21,1 ?C 23,6 ?C 24,4 ?C 57 % 1014,3 hPa 0,0 l/m? 17,2 km/h (3 Bft) W-SW 243 ? 3 min 768 W/m? 12,2 ?C 30,6 km/h (5 Bft)
05.09.2026 12:57 21,2 ?C 23,9 ?C 24,5 ?C 57 % 1014,2 hPa 0,0 l/m? 18,6 km/h (3 Bft) W-SW 238 ? 3 min 832 W/m? 12,3 ?C 33,8 km/h (5 Bft)
05.09.2026 13:00 21,3 ?C 24,4 ?C 24,7 ?C 57 % 1014,2 hPa 0,0 l/m? 19,3 km/h (3 Bft) W-SW 248 ? 3 min 690 W/m? 12,4 ?C 37,0 km/h (5 Bft)
05.09.2026 13:03 21,3 ?C 23,6 ?C 23,0 ?C 55 % 1014,2 hPa 0,0 l/m? 18,5 km/h (3 Bft) W-SW 250 ? 0 min 288 W/m? 11,9 ?C 29,0 km/h (5 Bft)
05.09.2026 13:06 20,9 ?C 23,1 ?C 22,9 ?C 58 % 1014,2 hPa 0,0 l/m? 17,4 km/h (3 Bft) W 261 ? 3 min 482 W/m? 12,3 ?C 32,2 km/h (5 Bft)
05.09.2026 13:09 20,7 ?C 22,8 ?C 22,7 ?C 58 % 1014,3 hPa 0,0 l/m? 14,2 km/h (3 Bft) W 260 ? 0 min 192 W/m? 12,1 ?C 22,5 km/h (4 Bft)
05.09.2026 13:12 20,4 ?C 21,5 ?C 21,8 ?C 59 % 1014,4 hPa 0,0 l/m? 19,3 km/h (3 Bft) W-SW 249 ? 0 min 176 W/m? 12,1 ?C 40,2 km/h (6 Bft)
05.09.2026 13:15 19,7 ?C 20,5 ?C 21,0 ?C 62 % 1014,4 hPa 0,0 l/m? 14,9 km/h (3 Bft) SW 220 ? 0 min 158 W/m? 12,2 ?C 27,4 km/h (5 Bft)
05.09.2026 13:18 19,1 ?C 20,0 ?C 20,7 ?C 65 % 1014,4 hPa 0,0 l/m? 16,8 km/h (3 Bft) W 273 ? 0 min 191 W/m? 12,4 ?C 25,7 km/h (4 Bft)
05.09.2026 13:21 18,8 ?C 19,5 ?C 20,3 ?C 66 % 1014,4 hPa 0,0 l/m? 16,3 km/h (3 Bft) W 272 ? 0 min 158 W/m? 12,3 ?C 25,7 km/h (4 Bft)
05.09.2026 13:24 18,1 ?C 18,7 ?C 19,5 ?C 72 % 1014,3 hPa 0,0 l/m? 19,0 km/h (3 Bft) W 281 ? 0 min 216 W/m? 13,0 ?C 27,4 km/h (5 Bft)
05.09.2026 13:27 17,6 ?C 19,5 ?C 20,4 ?C 74 % 1014,4 hPa 0,0 l/m? 12,0 km/h (2 Bft) W 264 ? 3 min 497 W/m? 12,9 ?C 22,5 km/h (4 Bft)
05.09.2026 13:30 18,2 ?C 21,3 ?C 21,7 ?C 77 % 1014,2 hPa 0,2 l/m? 9,9 km/h (2 Bft) W-SW 254 ? 3 min 694 W/m? 14,1 ?C 25,7 km/h (4 Bft)
05.09.2026 13:33 19,0 ?C 22,3 ?C 21,6 ?C 73 % 1014,2 hPa 0,0 l/m? 13,0 km/h (3 Bft) W-SW 256 ? 3 min 685 W/m? 14,0 ?C 24,1 km/h (4 Bft)
05.09.2026 13:36 19,7 ?C 23,5 ?C 21,4 ?C 66 % 1014,2 hPa 0,0 l/m? 18,7 km/h (3 Bft) W-SW 241 ? 3 min 683 W/m? 13,2 ?C 32,2 km/h (5 Bft)
05.09.2026 13:39 20,1 ?C 24,5 ?C 21,8 ?C 64 % 1014,1 hPa 0,0 l/m? 13,3 km/h (3 Bft) W-SW 237 ? 3 min 667 W/m? 13,1 ?C 32,2 km/h (5 Bft)
05.09.2026 13:42 20,5 ?C 25,3 ?C 21,7 ?C 64 % 1014,1 hPa 0,0 l/m? 12,8 km/h (3 Bft) W-SW 244 ? 3 min 656 W/m? 13,5 ?C 22,5 km/h (4 Bft)
05.09.2026 13:45 20,8 ?C 26,0 ?C 21,5 ?C 62 % 1014,1 hPa 0,0 l/m? 22,6 km/h (4 Bft) W-SW 255 ? 3 min 654 W/m? 13,2 ?C 37,0 km/h (5 Bft)
05.09.2026 13:48 20,5 ?C 25,6 ?C 21,1 ?C 61 % 1014,2 hPa 0,0 l/m? 21,2 km/h (4 Bft) W-SW 246 ? 3 min 659 W/m? 12,7 ?C 37,0 km/h (5 Bft)
05.09.2026 13:51 20,4 ?C 25,6 ?C 21,2 ?C 62 % 1014,2 hPa 0,0 l/m? 19,5 km/h (3 Bft) W-SW 256 ? 3 min 493 W/m? 12,9 ?C 32,2 km/h (5 Bft)
05.09.2026 13:54 20,3 ?C 23,8 ?C 21,1 ?C 61 % 1014,2 hPa 0,0 l/m? 20,9 km/h (4 Bft) W-SW 244 ? 0 min 188 W/m? 12,5 ?C 32,2 km/h (5 Bft)
05.09.2026 13:57 20,1 ?C 24,2 ?C 21,5 ?C 61 % 1014,2 hPa 0,0 l/m? 21,6 km/h (4 Bft) W-SW 239 ? 3 min 699 W/m? 12,3 ?C 35,4 km/h (5 Bft)
05.09.2026 14:00 20,3 ?C 25,2 ?C 21,9 ?C 62 % 1014,2 hPa 0,0 l/m? 21,3 km/h (4 Bft) W-SW 254 ? 3 min 740 W/m? 12,8 ?C 35,4 km/h (5 Bft)
05.09.2026 14:03 20,7 ?C 24,8 ?C 21,8 ?C 60 % 1014,2 hPa 0,0 l/m? 24,2 km/h (4 Bft) W-SW 244 ? 0 min 344 W/m? 12,7 ?C 37,0 km/h (5 Bft)
05.09.2026 14:06 20,4 ?C 24,0 ?C 21,5 ?C 59 % 1014,2 hPa 0,0 l/m? 24,1 km/h (4 Bft) W-SW 252 ? 3 min 428 W/m? 12,1 ?C 37,0 km/h (5 Bft)
05.09.2026 14:09 20,1 ?C 22,6 ?C 21,3 ?C 60 % 1014,1 hPa 0,0 l/m? 21,0 km/h (4 Bft) SW 235 ? 0 min 163 W/m? 12,1 ?C 35,4 km/h (5 Bft)
05.09.2026 14:12 19,8 ?C 21,3 ?C 20,7 ?C 63 % 1014,2 hPa 0,0 l/m? 20,1 km/h (4 Bft) W-SW 248 ? 0 min 133 W/m? 12,5 ?C 29,0 km/h (5 Bft)
05.09.2026 14:15 19,3 ?C 20,2 ?C 20,1 ?C 66 % 1014,3 hPa 0,0 l/m? 20,6 km/h (4 Bft) W-SW 250 ? 0 min 172 W/m? 12,8 ?C 40,2 km/h (6 Bft)
05.09.2026 14:18 18,9 ?C 21,7 ?C 20,8 ?C 69 % 1014,3 hPa 0,0 l/m? 15,4 km/h (3 Bft) W-SW 250 ? 3 min 573 W/m? 13,1 ?C 32,2 km/h (5 Bft)
05.09.2026 14:21 19,3 ?C 21,7 ?C 21,1 ?C 68 % 1014,3 hPa 0,0 l/m? 19,1 km/h (3 Bft) W 260 ? 0 min 179 W/m? 13,2 ?C 32,2 km/h (5 Bft)
05.09.2026 14:24 19,4 ?C 20,5 ?C 20,7 ?C 66 % 1014,4 hPa 0,0 l/m? 17,8 km/h (3 Bft) W 264 ? 0 min 138 W/m? 12,9 ?C 32,2 km/h (5 Bft)
05.09.2026 14:27 19,3 ?C 20,1 ?C 20,5 ?C 66 % 1014,5 hPa 0,0 l/m? 20,2 km/h (4 Bft) W-SW 257 ? 0 min 165 W/m? 12,8 ?C 38,6 km/h (6 Bft)
05.09.2026 14:30 19,3 ?C 20,3 ?C 20,5 ?C 66 % 1014,4 hPa 0,0 l/m? 22,8 km/h (4 Bft) W-SW 246 ? 0 min 274 W/m? 12,8 ?C 41,8 km/h (6 Bft)
05.09.2026 14:33 19,3 ?C 20,5 ?C 20,8 ?C 65 % 1014,5 hPa 0,0 l/m? 17,6 km/h (3 Bft) W-SW 254 ? 0 min 230 W/m? 12,6 ?C 32,2 km/h (5 Bft)
05.09.2026 14:36 19,3 ?C 20,4 ?C 20,8 ?C 66 % 1014,5 hPa 0,0 l/m? 17,7 km/h (3 Bft) W 263 ? 0 min 217 W/m? 12,8 ?C 35,4 km/h (5 Bft)
05.09.2026 14:39 19,3 ?C 20,6 ?C 20,8 ?C 65 % 1014,5 hPa 0,0 l/m? 17,6 km/h (3 Bft) W 267 ? 0 min 272 W/m? 12,6 ?C 30,6 km/h (5 Bft)
05.09.2026 14:42 19,4 ?C 21,0 ?C 21,0 ?C 65 % 1014,4 hPa 0,0 l/m? 14,1 km/h (3 Bft) W-SW 258 ? 0 min 277 W/m? 12,6 ?C 25,7 km/h (4 Bft)
05.09.2026 14:45 19,5 ?C 21,3 ?C 21,0 ?C 65 % 1014,5 hPa 0,0 l/m? 17,3 km/h (3 Bft) W-SW 255 ? 0 min 321 W/m? 12,7 ?C 30,6 km/h (5 Bft)
05.09.2026 14:48 19,7 ?C 23,4 ?C 21,2 ?C 64 % 1014,5 hPa 0,0 l/m? 22,9 km/h (4 Bft) W-SW 251 ? 3 min 657 W/m? 12,7 ?C 37,0 km/h (5 Bft)
05.09.2026 14:51 20,0 ?C 24,2 ?C 21,4 ?C 62 % 1014,4 hPa 0,0 l/m? 18,1 km/h (3 Bft) W-SW 242 ? 3 min 642 W/m? 12,5 ?C 33,8 km/h (5 Bft)
05.09.2026 14:54 20,2 ?C 24,4 ?C 21,3 ?C 61 % 1014,4 hPa 0,0 l/m? 18,1 km/h (3 Bft) SW 231 ? 3 min 635 W/m? 12,4 ?C 30,6 km/h (5 Bft)
05.09.2026 14:57 20,1 ?C 23,5 ?C 20,6 ?C 61 % 1014,4 hPa 0,0 l/m? 22,2 km/h (4 Bft) W-SW 242 ? 0 min 265 W/m? 12,3 ?C 38,6 km/h (6 Bft)
05.09.2026 15:00 19,7 ?C 23,7 ?C 20,6 ?C 62 % 1014,4 hPa 0,0 l/m? 16,1 km/h (3 Bft) W-SW 248 ? 3 min 603 W/m? 12,2 ?C 27,4 km/h (5 Bft)
05.09.2026 15:03 19,9 ?C 25,5 ?C 21,0 ?C 62 % 1014,3 hPa 0,0 l/m? 17,2 km/h (3 Bft) W-SW 246 ? 3 min 580 W/m? 12,4 ?C 30,6 km/h (5 Bft)
05.09.2026 15:06 20,3 ?C 26,0 ?C 21,3 ?C 62 % 1014,3 hPa 0,0 l/m? 16,2 km/h (3 Bft) W 261 ? 3 min 622 W/m? 12,8 ?C 27,4 km/h (5 Bft)
05.09.2026 15:09 20,5 ?C 26,1 ?C 21,4 ?C 59 % 1014,3 hPa 0,0 l/m? 20,0 km/h (4 Bft) W-SW 245 ? 3 min 579 W/m? 12,2 ?C 35,4 km/h (5 Bft)
05.09.2026 15:12 20,3 ?C 24,1 ?C 21,1 ?C 60 % 1014,3 hPa 0,0 l/m? 19,2 km/h (3 Bft) W-SW 240 ? 0 min 257 W/m? 12,3 ?C 37,0 km/h (5 Bft)
05.09.2026 15:15 20,0 ?C 22,8 ?C 20,9 ?C 61 % 1014,3 hPa 0,0 l/m? 19,8 km/h (3 Bft) W-SW 254 ? 0 min 289 W/m? 12,2 ?C 41,8 km/h (6 Bft)
05.09.2026 15:18 19,8 ?C 22,9 ?C 21,5 ?C 62 % 1014,3 hPa 0,0 l/m? 17,1 km/h (3 Bft) W-SW 254 ? 0 min 297 W/m? 12,3 ?C 30,6 km/h (5 Bft)
05.09.2026 15:21 19,8 ?C 22,9 ?C 21,8 ?C 63 % 1014,3 hPa 0,0 l/m? 12,5 km/h (2 Bft) W 267 ? 0 min 283 W/m? 12,5 ?C 27,4 km/h (5 Bft)
05.09.2026 15:24 20,0 ?C 24,0 ?C 22,0 ?C 63 % 1014,3 hPa 0,0 l/m? 15,7 km/h (3 Bft) W-SW 258 ? 3 min 438 W/m? 12,7 ?C 29,0 km/h (5 Bft)
05.09.2026 15:27 20,3 ?C 24,8 ?C 21,6 ?C 62 % 1014,3 hPa 0,0 l/m? 20,9 km/h (4 Bft) W 263 ? 3 min 608 W/m? 12,8 ?C 37,0 km/h (5 Bft)
05.09.2026 15:30 20,6 ?C 25,7 ?C 21,8 ?C 63 % 1014,2 hPa 0,0 l/m? 16,7 km/h (3 Bft) W 268 ? 3 min 604 W/m? 13,3 ?C 32,2 km/h (5 Bft)
05.09.2026 15:33 21,0 ?C 25,4 ?C 21,6 ?C 61 % 1014,2 hPa 0,0 l/m? 19,2 km/h (3 Bft) W 263 ? 0 min 190 W/m? 13,2 ?C 40,2 km/h (6 Bft)
05.09.2026 15:36 20,6 ?C 23,2 ?C 21,3 ?C 61 % 1014,2 hPa 0,0 l/m? 14,8 km/h (3 Bft) W 269 ? 0 min 128 W/m? 12,8 ?C 30,6 km/h (5 Bft)
05.09.2026 15:39 20,2 ?C 22,4 ?C 21,4 ?C 63 % 1014,2 hPa 0,0 l/m? 13,7 km/h (3 Bft) W-SW 255 ? 0 min 155 W/m? 12,9 ?C 25,7 km/h (4 Bft)
05.09.2026 15:42 20,0 ?C 22,0 ?C 21,4 ?C 63 % 1014,2 hPa 0,0 l/m? 13,9 km/h (3 Bft) W-SW 248 ? 0 min 129 W/m? 12,7 ?C 22,5 km/h (4 Bft)
05.09.2026 15:45 19,8 ?C 21,4 ?C 21,2 ?C 63 % 1014,2 hPa 0,0 l/m? 15,0 km/h (3 Bft) W-SW 250 ? 0 min 121 W/m? 12,5 ?C 25,7 km/h (4 Bft)
05.09.2026 15:48 19,9 ?C 22,6 ?C 21,6 ?C 64 % 1014,2 hPa 0,0 l/m? 14,2 km/h (3 Bft) W-SW 250 ? 3 min 547 W/m? 12,9 ?C 35,4 km/h (5 Bft)
05.09.2026 15:51 20,3 ?C 23,2 ?C 21,5 ?C 63 % 1014,2 hPa 0,0 l/m? 18,7 km/h (3 Bft) W-SW 252 ? 0 min 300 W/m? 13,0 ?C 33,8 km/h (5 Bft)
05.09.2026 15:54 20,4 ?C 21,9 ?C 21,1 ?C 63 % 1014,2 hPa 0,0 l/m? 15,3 km/h (3 Bft) W 265 ? 0 min 199 W/m? 13,1 ?C 25,7 km/h (4 Bft)
05.09.2026 15:57 20,2 ?C 21,4 ?C 21,3 ?C 64 % 1014,1 hPa 0,0 l/m? 8,0 km/h (2 Bft) W-SW 250 ? 0 min 161 W/m? 13,2 ?C 16,1 km/h (3 Bft)
05.09.2026 16:00 20,1 ?C 21,3 ?C 21,3 ?C 64 % 1014,1 hPa 0,0 l/m? 17,2 km/h (3 Bft) W-SW 245 ? 0 min 151 W/m? 13,1 ?C 29,0 km/h (5 Bft)
05.09.2026 16:03 20,0 ?C 20,8 ?C 21,0 ?C 61 % 1014,1 hPa 0,0 l/m? 23,0 km/h (4 Bft) W-SW 256 ? 0 min 132 W/m? 12,2 ?C 38,6 km/h (6 Bft)
05.09.2026 16:06 20,0 ?C 20,7 ?C 21,0 ?C 60 % 1014,0 hPa 0,0 l/m? 19,2 km/h (3 Bft) W 265 ? 0 min 110 W/m? 12,0 ?C 32,2 km/h (5 Bft)
05.09.2026 16:09 20,0 ?C 20,3 ?C 20,7 ?C 59 % 1014,0 hPa 0,0 l/m? 21,1 km/h (4 Bft) W 267 ? 0 min 44 W/m? 11,7 ?C 41,8 km/h (6 Bft)
05.09.2026 16:12 19,9 ?C 19,7 ?C 20,3 ?C 60 % 1014,4 hPa 0,0 l/m? 21,4 km/h (4 Bft) W 265 ? 0 min 36 W/m? 11,9 ?C 46,7 km/h (6 Bft)
05.09.2026 16:15 19,6 ?C 18,8 ?C 19,2 ?C 63 % 1014,7 hPa 0,2 l/m? 27,6 km/h (5 Bft) W 265 ? 0 min 57 W/m? 12,4 ?C 51,5 km/h (7 Bft)
05.09.2026 16:18 18,3 ?C 17,6 ?C 17,7 ?C 72 % 1014,8 hPa 0,2 l/m? 19,0 km/h (3 Bft) SW 231 ? 0 min 183 W/m? 13,2 ?C 27,4 km/h (5 Bft)
05.09.2026 16:21 17,1 ?C 18,3 ?C 18,3 ?C 78 % 1014,6 hPa 0,0 l/m? 15,5 km/h (3 Bft) W 265 ? 3 min 475 W/m? 13,2 ?C 24,1 km/h (4 Bft)
05.09.2026 16:24 17,0 ?C 19,1 ?C 19,4 ?C 80 % 1014,6 hPa 0,0 l/m? 12,6 km/h (3 Bft) W 274 ? 3 min 527 W/m? 13,5 ?C 22,5 km/h (4 Bft)
05.09.2026 16:27 17,3 ?C 18,7 ?C 20,0 ?C 80 % 1014,5 hPa 0,0 l/m? 9,2 km/h (2 Bft) W 267 ? 3 min 438 W/m? 13,8 ?C 17,7 km/h (3 Bft)
05.09.2026 16:30 17,6 ?C 18,1 ?C 20,0 ?C 79 % 1014,5 hPa 0,0 l/m? 14,3 km/h (3 Bft) W 263 ? 3 min 421 W/m? 13,9 ?C 25,7 km/h (4 Bft)
05.09.2026 16:33 17,8 ?C 18,1 ?C 20,0 ?C 78 % 1014,6 hPa 0,0 l/m? 10,8 km/h (2 Bft) W 261 ? 3 min 401 W/m? 13,9 ?C 19,3 km/h (3 Bft)
05.09.2026 16:36 18,1 ?C 18,2 ?C 20,0 ?C 76 % 1014,6 hPa 0,0 l/m? 12,7 km/h (3 Bft) W 263 ? 0 min 238 W/m? 13,8 ?C 22,5 km/h (4 Bft)
05.09.2026 16:39 18,2 ?C 17,9 ?C 19,7 ?C 75 % 1014,6 hPa 0,0 l/m? 10,9 km/h (2 Bft) W 277 ? 0 min 92 W/m? 13,7 ?C 33,8 km/h (5 Bft)
05.09.2026 16:42 18,2 ?C 17,5 ?C 19,5 ?C 73 % 1014,7 hPa 0,0 l/m? 13,1 km/h (3 Bft) W 266 ? 0 min 65 W/m? 13,3 ?C 22,5 km/h (4 Bft)
05.09.2026 16:45 18,2 ?C 17,2 ?C 19,2 ?C 72 % 1014,7 hPa 0,0 l/m? 11,0 km/h (2 Bft) W 266 ? 0 min 30 W/m? 13,1 ?C 17,7 km/h (3 Bft)
05.09.2026 16:48 18,2 ?C 16,8 ?C 19,0 ?C 71 % 1014,7 hPa 0,0 l/m? 13,4 km/h (3 Bft) W 274 ? 0 min 33 W/m? 12,9 ?C 20,9 km/h (4 Bft)
05.09.2026 16:51 18,2 ?C 16,8 ?C 19,0 ?C 71 % 1014,7 hPa 0,0 l/m? 19,5 km/h (3 Bft) W 270 ? 0 min 86 W/m? 12,9 ?C 29,0 km/h (5 Bft)
05.09.2026 16:54 18,2 ?C 17,1 ?C 19,1 ?C 70 % 1014,8 hPa 0,0 l/m? 15,8 km/h (3 Bft) W 271 ? 0 min 163 W/m? 12,6 ?C 30,6 km/h (5 Bft)
05.09.2026 16:57 18,2 ?C 17,6 ?C 19,6 ?C 71 % 1014,8 hPa 0,0 l/m? 13,3 km/h (3 Bft) W 270 ? 0 min 188 W/m? 12,9 ?C 22,5 km/h (4 Bft)
05.09.2026 17:00 18,4 ?C 17,9 ?C 20,0 ?C 71 % 1014,7 hPa 0,0 l/m? 11,1 km/h (2 Bft) W 259 ? 0 min 175 W/m? 13,0 ?C 20,9 km/h (4 Bft)
05.09.2026 17:03 18,6 ?C 17,7 ?C 19,9 ?C 70 % 1014,7 hPa 0,0 l/m? 19,5 km/h (3 Bft) W 265 ? 0 min 113 W/m? 13,0 ?C 41,8 km/h (6 Bft)
05.09.2026 17:06 18,7 ?C 17,2 ?C 19,4 ?C 67 % 1014,6 hPa 0,0 l/m? 22,2 km/h (4 Bft) W 263 ? 0 min 58 W/m? 12,4 ?C 37,0 km/h (5 Bft)
05.09.2026 17:09 18,6 ?C 16,8 ?C 19,1 ?C 67 % 1014,9 hPa 0,0 l/m? 23,6 km/h (4 Bft) W 264 ? 0 min 23 W/m? 12,3 ?C 38,6 km/h (6 Bft)
05.09.2026 17:12 18,5 ?C 16,3 ?C 18,3 ?C 69 % 1015,9 hPa 0,4 l/m? 29,5 km/h (5 Bft) W-NW 303 ? 0 min 6 W/m? 12,7 ?C 48,3 km/h (6 Bft)
05.09.2026 17:15 17,7 ?C 15,4 ?C 16,1 ?C 75 % 1016,1 hPa 1,8 l/m? 28,1 km/h (5 Bft) W-NW 295 ? 0 min 8 W/m? 13,2 ?C 41,8 km/h (6 Bft)
05.09.2026 17:18 16,6 ?C 15,1 ?C 15,3 ?C 80 % 1016,1 hPa 2,4 l/m? 25,9 km/h (4 Bft) S 188 ? 0 min 26 W/m? 13,1 ?C 38,6 km/h (6 Bft)
05.09.2026 17:21 15,6 ?C 14,9 ?C 15,1 ?C 82 % 1016,1 hPa 0,6 l/m? 25,3 km/h (4 Bft) S 185 ? 0 min 45 W/m? 12,5 ?C 41,8 km/h (6 Bft)
05.09.2026 17:24 15,1 ?C 14,9 ?C 15,0 ?C 83 % 1016,1 hPa 0,0 l/m? 17,4 km/h (3 Bft) S 185 ? 0 min 30 W/m? 12,2 ?C 40,2 km/h (6 Bft)
05.09.2026 17:27 14,8 ?C 15,0 ?C 15,0 ?C 84 % 1016,1 hPa 0,0 l/m? 13,0 km/h (3 Bft) S 185 ? 0 min 32 W/m? 12,1 ?C 27,4 km/h (5 Bft)
05.09.2026 17:30 14,7 ?C 15,1 ?C 15,0 ?C 85 % 1016,0 hPa 0,0 l/m? 13,4 km/h (3 Bft) S 185 ? 0 min 38 W/m? 12,2 ?C 24,1 km/h (4 Bft)
05.09.2026 17:33 14,6 ?C 15,2 ?C 15,1 ?C 86 % 1016,1 hPa 0,0 l/m? 11,2 km/h (2 Bft) S 185 ? 0 min 42 W/m? 12,3 ?C 22,5 km/h (4 Bft)
05.09.2026 17:36 14,5 ?C 15,1 ?C 15,1 ?C 86 % 1016,1 hPa 0,0 l/m? 12,2 km/h (2 Bft) S 185 ? 0 min 32 W/m? 12,2 ?C 22,5 km/h (4 Bft)
05.09.2026 17:39 14,6 ?C 15,2 ?C 15,0 ?C 87 % 1016,1 hPa 0,0 l/m? 11,7 km/h (2 Bft) S 185 ? 0 min 23 W/m? 12,5 ?C 24,1 km/h (4 Bft)
05.09.2026 17:42 14,5 ?C 15,1 ?C 14,9 ?C 87 % 1016,2 hPa 0,0 l/m? 14,8 km/h (3 Bft) S 185 ? 0 min 21 W/m? 12,4 ?C 24,1 km/h (4 Bft)
05.09.2026 17:45 14,5 ?C 15,1 ?C 14,9 ?C 87 % 1016,2 hPa 0,2 l/m? 18,6 km/h (3 Bft) S 185 ? 0 min 39 W/m? 12,4 ?C 27,4 km/h (5 Bft)
05.09.2026 17:48 14,5 ?C 15,2 ?C 14,9 ?C 87 % 1016,1 hPa 0,0 l/m? 13,9 km/h (3 Bft) S 185 ? 0 min 67 W/m? 12,4 ?C 24,1 km/h (4 Bft)
05.09.2026 17:51 14,4 ?C 15,3 ?C 14,9 ?C 87 % 1016,1 hPa 0,0 l/m? 12,2 km/h (2 Bft) S 185 ? 0 min 54 W/m? 12,3 ?C 32,2 km/h (5 Bft)
05.09.2026 17:54 14,4 ?C 15,3 ?C 14,8 ?C 87 % 1016,2 hPa 0,0 l/m? 18,7 km/h (3 Bft) S 185 ? 0 min 36 W/m? 12,3 ?C 29,0 km/h (5 Bft)
05.09.2026 17:57 14,3 ?C 15,0 ?C 14,6 ?C 87 % 1016,2 hPa 0,0 l/m? 17,0 km/h (3 Bft) S 185 ? 0 min 18 W/m? 12,2 ?C 24,1 km/h (4 Bft)
05.09.2026 18:00 14,2 ?C 14,8 ?C 14,4 ?C 87 % 1016,2 hPa 0,0 l/m? 13,0 km/h (3 Bft) S 185 ? 0 min 24 W/m? 12,1 ?C 29,0 km/h (5 Bft)
05.09.2026 18:03 14,2 ?C 14,9 ?C 14,4 ?C 87 % 1016,2 hPa 0,0 l/m? 11,8 km/h (2 Bft) S 185 ? 0 min 44 W/m? 12,1 ?C 27,4 km/h (5 Bft)
05.09.2026 18:06 14,2 ?C 15,0 ?C 14,5 ?C 87 % 1016,3 hPa 0,0 l/m? 12,0 km/h (2 Bft) S 185 ? 0 min 61 W/m? 12,1 ?C 20,9 km/h (4 Bft)
05.09.2026 18:09 14,2 ?C 15,0 ?C 14,5 ?C 87 % 1016,2 hPa 0,0 l/m? 8,7 km/h (2 Bft) S 185 ? 0 min 70 W/m? 12,1 ?C 17,7 km/h (3 Bft)
05.09.2026 18:12 14,2 ?C 15,1 ?C 14,6 ?C 87 % 1016,3 hPa 0,0 l/m? 10,1 km/h (2 Bft) S 185 ? 0 min 72 W/m? 12,1 ?C 17,7 km/h (3 Bft)
05.09.2026 18:15 14,2 ?C 15,0 ?C 14,7 ?C 87 % 1016,3 hPa 0,0 l/m? 11,0 km/h (2 Bft) S 185 ? 0 min 105 W/m? 12,1 ?C 22,5 km/h (4 Bft)
05.09.2026 18:18 14,3 ?C 15,1 ?C 15,0 ?C 87 % 1016,4 hPa 0,0 l/m? 10,4 km/h (2 Bft) S-SW 211 ? 3 min 154 W/m? 12,2 ?C 16,1 km/h (3 Bft)
05.09.2026 18:21 14,3 ?C 15,1 ?C 14,8 ?C 87 % 1016,4 hPa 0,0 l/m? 13,6 km/h (3 Bft) W 268 ? 0 min 87 W/m? 12,2 ?C 29,0 km/h (5 Bft)
05.09.2026 18:24 14,3 ?C 15,1 ?C 14,8 ?C 87 % 1016,6 hPa 0,0 l/m? 12,1 km/h (2 Bft) W 269 ? 3 min 142 W/m? 12,2 ?C 24,1 km/h (4 Bft)
05.09.2026 18:27 14,4 ?C 15,0 ?C 14,8 ?C 87 % 1016,7 hPa 0,0 l/m? 12,9 km/h (3 Bft) W 273 ? 0 min 53 W/m? 12,3 ?C 22,5 km/h (4 Bft)
05.09.2026 18:30 14,4 ?C 14,8 ?C 14,5 ?C 86 % 1016,7 hPa 0,0 l/m? 10,7 km/h (2 Bft) W 270 ? 0 min 43 W/m? 12,1 ?C 19,3 km/h (3 Bft)
05.09.2026 18:33 14,3 ?C 14,7 ?C 14,5 ?C 86 % 1016,8 hPa 0,0 l/m? 10,2 km/h (2 Bft) SW 223 ? 0 min 36 W/m? 12,0 ?C 20,9 km/h (4 Bft)
05.09.2026 18:36 14,3 ?C 14,8 ?C 14,4 ?C 86 % 1016,8 hPa 0,0 l/m? 7,0 km/h (2 Bft) W-SW 249 ? 0 min 26 W/m? 12,0 ?C 16,1 km/h (3 Bft)
05.09.2026 18:39 14,3 ?C 14,8 ?C 14,4 ?C 87 % 1016,8 hPa 0,0 l/m? 7,1 km/h (2 Bft) W 265 ? 0 min 19 W/m? 12,2 ?C 14,5 km/h (3 Bft)
05.09.2026 18:42 14,2 ?C 14,7 ?C 14,3 ?C 86 % 1016,7 hPa 0,0 l/m? 5,5 km/h (2 Bft) SW 235 ? 0 min 18 W/m? 11,9 ?C 14,5 km/h (3 Bft)
05.09.2026 18:45 14,2 ?C 14,8 ?C 14,3 ?C 87 % 1016,7 hPa 0,0 l/m? 7,7 km/h (2 Bft) W-SW 248 ? 0 min 21 W/m? 12,1 ?C 12,9 km/h (3 Bft)
05.09.2026 18:48 14,2 ?C 14,8 ?C 14,3 ?C 87 % 1016,8 hPa 0,0 l/m? 7,1 km/h (2 Bft) W-SW 250 ? 0 min 27 W/m? 12,1 ?C 14,5 km/h (3 Bft)
05.09.2026 18:51 14,2 ?C 14,9 ?C 14,3 ?C 87 % 1016,8 hPa 0,0 l/m? 5,8 km/h (2 Bft) W-SW 242 ? 0 min 33 W/m? 12,1 ?C 14,5 km/h (3 Bft)
05.09.2026 18:54 14,2 ?C 14,9 ?C 14,2 ?C 87 % 1016,9 hPa 0,0 l/m? 6,5 km/h (2 Bft) W-SW 249 ? 0 min 27 W/m? 12,1 ?C 12,9 km/h (3 Bft)
05.09.2026 18:57 14,2 ?C 14,8 ?C 14,1 ?C 87 % 1016,9 hPa 0,0 l/m? 8,6 km/h (2 Bft) SW 215 ? 0 min 21 W/m? 12,1 ?C 14,5 km/h (3 Bft)
05.09.2026 19:00 14,1 ?C 14,8 ?C 14,1 ?C 87 % 1016,9 hPa 0,0 l/m? 6,3 km/h (2 Bft) SW 216 ? 0 min 21 W/m? 12,0 ?C 12,9 km/h (3 Bft)
05.09.2026 19:03 14,1 ?C 14,7 ?C 14,1 ?C 87 % 1017,0 hPa 0,0 l/m? 8,6 km/h (2 Bft) S 186 ? 0 min 17 W/m? 12,0 ?C 16,1 km/h (3 Bft)
05.09.2026 19:06 14,1 ?C 14,6 ?C 14,1 ?C 87 % 1017,0 hPa 0,0 l/m? 7,9 km/h (2 Bft) S 189 ? 0 min 20 W/m? 12,0 ?C 14,5 km/h (3 Bft)
05.09.2026 19:09 14,1 ?C 14,5 ?C 14,1 ?C 87 % 1017,0 hPa 0,0 l/m? 6,4 km/h (2 Bft) SW 216 ? 3 min 56 W/m? 12,0 ?C 12,9 km/h (3 Bft)
05.09.2026 19:12 14,1 ?C 14,5 ?C 14,2 ?C 87 % 1017,1 hPa 0,0 l/m? 6,1 km/h (2 Bft) W-SW 253 ? 3 min 57 W/m? 12,0 ?C 11,3 km/h (2 Bft)
05.09.2026 19:15 14,1 ?C 14,7 ?C 14,2 ?C 87 % 1017,1 hPa 0,0 l/m? 8,0 km/h (2 Bft) W 260 ? 3 min 36 W/m? 12,0 ?C 12,9 km/h (3 Bft)
05.09.2026 19:18 14,1 ?C 14,6 ?C 14,2 ?C 87 % 1017,1 hPa 0,0 l/m? 8,1 km/h (2 Bft) W-SW 249 ? 3 min 26 W/m? 12,0 ?C 14,5 km/h (3 Bft)
05.09.2026 19:21 14,1 ?C 14,5 ?C 14,1 ?C 87 % 1017,0 hPa 0,0 l/m? 4,3 km/h (1 Bft) W-SW 244 ? 3 min 24 W/m? 12,0 ?C 9,7 km/h (2 Bft)
05.09.2026 19:24 14,2 ?C 14,5 ?C 14,1 ?C 87 % 1017,1 hPa 0,0 l/m? 6,2 km/h (2 Bft) W-SW 252 ? 3 min 23 W/m? 12,1 ?C 12,9 km/h (3 Bft)
05.09.2026 19:27 14,1 ?C 14,5 ?C 14,0 ?C 87 % 1017,2 hPa 0,0 l/m? 4,6 km/h (1 Bft) SW 219 ? 3 min 16 W/m? 12,0 ?C 9,7 km/h (2 Bft)
05.09.2026 19:30 14,1 ?C 14,4 ?C 13,8 ?C 87 % 1017,1 hPa 0,0 l/m? 5,8 km/h (2 Bft) SW 215 ? 0 min 12 W/m? 12,0 ?C 11,3 km/h (2 Bft)
05.09.2026 19:33 14,0 ?C 14,3 ?C 13,8 ?C 87 % 1017,2 hPa 0,0 l/m? 6,1 km/h (2 Bft) S 186 ? 0 min 9 W/m? 11,9 ?C 12,9 km/h (3 Bft)
05.09.2026 19:36 14,0 ?C 14,2 ?C 13,7 ?C 87 % 1017,2 hPa 0,0 l/m? 5,0 km/h (1 Bft) S-SW 204 ? 0 min 8 W/m? 11,9 ?C 9,7 km/h (2 Bft)
05.09.2026 19:39 14,0 ?C 14,0 ?C 13,5 ?C 87 % 1017,1 hPa 0,0 l/m? 4,1 km/h (1 Bft) S 185 ? 0 min 5 W/m? 11,9 ?C 11,3 km/h (2 Bft)
05.09.2026 19:42 13,9 ?C 13,9 ?C 13,5 ?C 87 % 1017,2 hPa 0,0 l/m? 6,4 km/h (2 Bft) S 185 ? 0 min 4 W/m? 11,8 ?C 14,5 km/h (3 Bft)
05.09.2026 19:45 13,9 ?C 13,8 ?C 13,4 ?C 87 % 1017,2 hPa 0,0 l/m? 4,1 km/h (1 Bft) S 187 ? 0 min 4 W/m? 11,8 ?C 8,0 km/h (2 Bft)
05.09.2026 19:48 13,8 ?C 13,6 ?C 13,3 ?C 87 % 1017,2 hPa 0,0 l/m? 4,7 km/h (1 Bft) SW 216 ? 0 min 2 W/m? 11,7 ?C 12,9 km/h (3 Bft)
05.09.2026 19:51 13,8 ?C 13,6 ?C 13,1 ?C 87 % 1017,2 hPa 0,0 l/m? 2,3 km/h (1 Bft) SW 231 ? 0 min 2 W/m? 11,7 ?C 6,4 km/h (2 Bft)
05.09.2026 19:54 13,7 ?C 13,5 ?C 13,0 ?C 87 % 1017,3 hPa 0,0 l/m? 2,1 km/h (1 Bft) S-SW 203 ? 0 min 2 W/m? 11,6 ?C 6,4 km/h (2 Bft)
05.09.2026 19:57 13,6 ?C 13,3 ?C 12,9 ?C 88 % 1017,3 hPa 0,0 l/m? 2,5 km/h (1 Bft) SW 236 ? 0 min 1 W/m? 11,6 ?C 6,4 km/h (2 Bft)
05.09.2026 20:00 13,6 ?C 13,3 ?C 12,9 ?C 88 % 1017,4 hPa 0,0 l/m? 2,8 km/h (1 Bft) S 189 ? 0 min 0 W/m? 11,6 ?C 6,4 km/h (2 Bft)
05.09.2026 20:03 13,6 ?C 13,3 ?C 13,0 ?C 88 % 1017,5 hPa 0,0 l/m? 3,4 km/h (1 Bft) S 185 ? 0 min 0 W/m? 11,6 ?C 6,4 km/h (2 Bft)
05.09.2026 20:06 13,6 ?C 13,4 ?C 13,1 ?C 88 % 1017,5 hPa 0,0 l/m? 2,7 km/h (1 Bft) SW 226 ? 0 min 0 W/m? 11,6 ?C 6,4 km/h (2 Bft)
05.09.2026 20:09 13,6 ?C 13,6 ?C 13,1 ?C 88 % 1017,5 hPa 0,0 l/m? 2,7 km/h (1 Bft) S-SW 213 ? 0 min 0 W/m? 11,6 ?C 4,8 km/h (1 Bft)
05.09.2026 20:12 13,6 ?C 13,7 ?C 13,1 ?C 88 % 1017,6 hPa 0,0 l/m? 2,1 km/h (1 Bft) S 185 ? 0 min 0 W/m? 11,6 ?C 4,8 km/h (1 Bft)
05.09.2026 20:15 13,6 ?C 13,7 ?C 13,2 ?C 88 % 1017,7 hPa 0,0 l/m? 4,2 km/h (1 Bft) S-SW 192 ? 0 min 0 W/m? 11,6 ?C 8,0 km/h (2 Bft)
05.09.2026 20:18 13,6 ?C 13,8 ?C 13,2 ?C 89 % 1017,7 hPa 0,0 l/m? 3,6 km/h (1 Bft) S 185 ? 0 min 0 W/m? 11,8 ?C 6,4 km/h (2 Bft)
05.09.2026 20:21 13,6 ?C 13,8 ?C 13,2 ?C 89 % 1017,7 hPa 0,0 l/m? 3,6 km/h (1 Bft) S 185 ? 0 min 0 W/m? 11,8 ?C 6,4 km/h (2 Bft)
05.09.2026 20:24 13,6 ?C 13,7 ?C 13,2 ?C 89 % 1017,7 hPa 0,0 l/m? 4,8 km/h (1 Bft) S 185 ? 0 min 0 W/m? 11,8 ?C 12,9 km/h (3 Bft)
05.09.2026 20:27 13,6 ?C 13,6 ?C 13,1 ?C 89 % 1017,8 hPa 0,0 l/m? 3,2 km/h (1 Bft) S 187 ? 0 min 0 W/m? 11,8 ?C 6,4 km/h (2 Bft)
05.09.2026 20:30 13,6 ?C 13,6 ?C 13,0 ?C 89 % 1017,8 hPa 0,0 l/m? 3,9 km/h (1 Bft) S 189 ? 0 min 0 W/m? 11,8 ?C 8,0 km/h (2 Bft)
05.09.2026 20:33 13,6 ?C 13,5 ?C 13,0 ?C 89 % 1017,8 hPa 0,0 l/m? 5,4 km/h (2 Bft) S-SW 195 ? 0 min 0 W/m? 11,8 ?C 11,3 km/h (2 Bft)
05.09.2026 20:36 13,6 ?C 13,4 ?C 12,9 ?C 89 % 1017,9 hPa 0,0 l/m? 3,3 km/h (1 Bft) S 186 ? 0 min 0 W/m? 11,8 ?C 6,4 km/h (2 Bft)
05.09.2026 20:39 13,5 ?C 13,4 ?C 13,0 ?C 89 % 1017,9 hPa 0,0 l/m? 4,9 km/h (1 Bft) S-SW 208 ? 0 min 0 W/m? 11,7 ?C 11,3 km/h (2 Bft)
05.09.2026 20:42 13,5 ?C 13,4 ?C 13,0 ?C 89 % 1017,9 hPa 0,0 l/m? 5,8 km/h (2 Bft) W-SW 247 ? 0 min 0 W/m? 11,7 ?C 12,9 km/h (3 Bft)
05.09.2026 20:45 13,5 ?C 13,4 ?C 13,1 ?C 89 % 1017,9 hPa 0,0 l/m? 5,6 km/h (2 Bft) W-SW 246 ? 0 min 0 W/m? 11,7 ?C 12,9 km/h (3 Bft)
05.09.2026 20:48 13,6 ?C 13,4 ?C 13,0 ?C 89 % 1018,0 hPa 0,0 l/m? 4,3 km/h (1 Bft) W-SW 246 ? 0 min 0 W/m? 11,8 ?C 11,3 km/h (2 Bft)
05.09.2026 20:51 13,5 ?C 13,3 ?C 12,9 ?C 89 % 1018,1 hPa 0,0 l/m? 4,9 km/h (1 Bft) W 259 ? 0 min 0 W/m? 11,7 ?C 11,3 km/h (2 Bft)
05.09.2026 20:54 13,5 ?C 13,3 ?C 13,0 ?C 89 % 1018,1 hPa 0,0 l/m? 4,5 km/h (1 Bft) W-SW 239 ? 0 min 0 W/m? 11,7 ?C 11,3 km/h (2 Bft)
05.09.2026 20:57 13,5 ?C 13,3 ?C 13,0 ?C 89 % 1018,2 hPa 0,0 l/m? 4,4 km/h (1 Bft) W-SW 254 ? 0 min 0 W/m? 11,7 ?C 11,3 km/h (2 Bft)
05.09.2026 21:00 13,5 ?C 13,4 ?C 13,1 ?C 89 % 1018,2 hPa 0,0 l/m? 4,1 km/h (1 Bft) W-SW 243 ? 0 min 0 W/m? 11,7 ?C 8,0 km/h (2 Bft)
05.09.2026 21:03 13,5 ?C 13,4 ?C 13,1 ?C 89 % 1018,2 hPa 0,0 l/m? 5,0 km/h (1 Bft) S-SW 202 ? 0 min 0 W/m? 11,7 ?C 16,1 km/h (3 Bft)
05.09.2026 21:06 13,5 ?C 13,4 ?C 13,0 ?C 89 % 1018,3 hPa 0,0 l/m? 2,8 km/h (1 Bft) S 185 ? 0 min 0 W/m? 11,7 ?C 4,8 km/h (1 Bft)
05.09.2026 21:09 13,5 ?C 13,4 ?C 13,0 ?C 89 % 1018,3 hPa 0,0 l/m? 5,4 km/h (2 Bft) S 185 ? 0 min 0 W/m? 11,7 ?C 11,3 km/h (2 Bft)
05.09.2026 21:12 13,5 ?C 13,3 ?C 12,9 ?C 89 % 1018,3 hPa 0,0 l/m? 3,6 km/h (1 Bft) S 185 ? 0 min 0 W/m? 11,7 ?C 8,0 km/h (2 Bft)
05.09.2026 21:15 13,5 ?C 13,3 ?C 12,9 ?C 89 % 1018,3 hPa 0,0 l/m? 3,9 km/h (1 Bft) SW 236 ? 0 min 0 W/m? 11,7 ?C 8,0 km/h (2 Bft)
05.09.2026 21:18 13,5 ?C 13,2 ?C 12,9 ?C 89 % 1018,4 hPa 0,0 l/m? 5,0 km/h (1 Bft) S-SW 197 ? 0 min 0 W/m? 11,7 ?C 11,3 km/h (2 Bft)
05.09.2026 21:21 13,5 ?C 13,1 ?C 12,9 ?C 89 % 1018,4 hPa 0,0 l/m? 3,9 km/h (1 Bft) SW 226 ? 0 min 0 W/m? 11,7 ?C 8,0 km/h (2 Bft)
05.09.2026 21:24 13,5 ?C 13,1 ?C 12,9 ?C 89 % 1018,5 hPa 0,0 l/m? 5,2 km/h (1 Bft) S 185 ? 0 min 0 W/m? 11,7 ?C 8,0 km/h (2 Bft)
05.09.2026 21:27 13,4 ?C 13,2 ?C 12,9 ?C 89 % 1018,5 hPa 0,0 l/m? 4,1 km/h (1 Bft) S-SW 203 ? 0 min 0 W/m? 11,6 ?C 8,0 km/h (2 Bft)
05.09.2026 21:30 13,4 ?C 13,1 ?C 12,8 ?C 89 % 1018,5 hPa 0,0 l/m? 4,5 km/h (1 Bft) SW 234 ? 0 min 0 W/m? 11,6 ?C 11,3 km/h (2 Bft)
05.09.2026 21:33 13,4 ?C 13,0 ?C 12,8 ?C 89 % 1018,5 hPa 0,0 l/m? 4,9 km/h (1 Bft) W-SW 246 ? 0 min 0 W/m? 11,6 ?C 8,0 km/h (2 Bft)
05.09.2026 21:36 13,3 ?C 13,0 ?C 12,6 ?C 89 % 1018,6 hPa 0,0 l/m? 2,3 km/h (1 Bft) SW 236 ? 0 min 0 W/m? 11,5 ?C 8,0 km/h (2 Bft)
05.09.2026 21:39 13,3 ?C 13,0 ?C 12,6 ?C 88 % 1018,5 hPa 0,0 l/m? 4,5 km/h (1 Bft) S-SW 210 ? 0 min 0 W/m? 11,4 ?C 12,9 km/h (3 Bft)
05.09.2026 21:42 13,3 ?C 13,0 ?C 12,7 ?C 88 % 1018,6 hPa 0,0 l/m? 5,7 km/h (2 Bft) S-SW 192 ? 0 min 0 W/m? 11,4 ?C 11,3 km/h (2 Bft)
05.09.2026 21:45 13,3 ?C 13,0 ?C 12,8 ?C 88 % 1018,6 hPa 0,0 l/m? 7,1 km/h (2 Bft) S-SW 206 ? 0 min 0 W/m? 11,4 ?C 14,5 km/h (3 Bft)
05.09.2026 21:48 13,3 ?C 13,1 ?C 13,0 ?C 89 % 1018,7 hPa 0,0 l/m? 7,9 km/h (2 Bft) S-SW 203 ? 0 min 0 W/m? 11,5 ?C 12,9 km/h (3 Bft)
05.09.2026 21:51 13,3 ?C 13,2 ?C 13,0 ?C 89 % 1018,6 hPa 0,0 l/m? 6,0 km/h (2 Bft) S 188 ? 0 min 0 W/m? 11,5 ?C 12,9 km/h (3 Bft)
05.09.2026 21:54 13,3 ?C 13,4 ?C 13,1 ?C 89 % 1018,6 hPa 0,0 l/m? 7,7 km/h (2 Bft) W-SW 242 ? 0 min 0 W/m? 11,5 ?C 20,9 km/h (4 Bft)
05.09.2026 21:57 13,4 ?C 13,5 ?C 13,2 ?C 88 % 1018,6 hPa 0,0 l/m? 5,6 km/h (2 Bft) W-SW 254 ? 0 min 0 W/m? 11,5 ?C 9,7 km/h (2 Bft)
05.09.2026 22:00 13,5 ?C 13,5 ?C 13,2 ?C 88 % 1018,7 hPa 0,0 l/m? 6,1 km/h (2 Bft) W-SW 255 ? 0 min 0 W/m? 11,6 ?C 12,9 km/h (3 Bft)
05.09.2026 22:03 13,5 ?C 13,5 ?C 13,2 ?C 88 % 1018,8 hPa 0,0 l/m? 5,1 km/h (1 Bft) W-SW 255 ? 0 min 0 W/m? 11,6 ?C 12,9 km/h (3 Bft)
05.09.2026 22:06 13,5 ?C 13,4 ?C 13,3 ?C 88 % 1018,8 hPa 0,0 l/m? 8,2 km/h (2 Bft) W 266 ? 0 min 0 W/m? 11,6 ?C 16,1 km/h (3 Bft)
05.09.2026 22:09 13,5 ?C 13,4 ?C 13,2 ?C 88 % 1018,8 hPa 0,0 l/m? 6,2 km/h (2 Bft) W 263 ? 0 min 0 W/m? 11,6 ?C 14,5 km/h (3 Bft)
05.09.2026 22:12 13,5 ?C 13,3 ?C 13,1 ?C 88 % 1018,9 hPa 0,0 l/m? 6,8 km/h (2 Bft) W 261 ? 0 min 0 W/m? 11,6 ?C 14,5 km/h (3 Bft)
05.09.2026 22:15 13,5 ?C 13,1 ?C 13,0 ?C 88 % 1019,0 hPa 0,0 l/m? 5,9 km/h (2 Bft) W 260 ? 0 min 0 W/m? 11,6 ?C 12,9 km/h (3 Bft)
05.09.2026 22:18 13,4 ?C 13,0 ?C 12,9 ?C 88 % 1018,9 hPa 0,0 l/m? 9,1 km/h (2 Bft) W 265 ? 0 min 0 W/m? 11,5 ?C 16,1 km/h (3 Bft)
05.09.2026 22:21 13,4 ?C 12,9 ?C 12,9 ?C 87 % 1018,9 hPa 0,0 l/m? 9,5 km/h (2 Bft) W 267 ? 0 min 0 W/m? 11,3 ?C 16,1 km/h (3 Bft)
05.09.2026 22:24 13,4 ?C 13,0 ?C 12,9 ?C 87 % 1019,0 hPa 0,0 l/m? 8,0 km/h (2 Bft) W 265 ? 0 min 0 W/m? 11,3 ?C 19,3 km/h (3 Bft)
05.09.2026 22:27 13,3 ?C 12,9 ?C 12,9 ?C 87 % 1019,0 hPa 0,0 l/m? 8,6 km/h (2 Bft) W-SW 256 ? 0 min 0 W/m? 11,2 ?C 14,5 km/h (3 Bft)
05.09.2026 22:30 13,3 ?C 12,8 ?C 12,8 ?C 87 % 1019,0 hPa 0,0 l/m? 6,4 km/h (2 Bft) W 264 ? 0 min 0 W/m? 11,2 ?C 14,5 km/h (3 Bft)
05.09.2026 22:33 13,3 ?C 12,8 ?C 12,8 ?C 87 % 1019,0 hPa 0,0 l/m? 7,6 km/h (2 Bft) W 261 ? 0 min 0 W/m? 11,2 ?C 14,5 km/h (3 Bft)
05.09.2026 22:36 13,3 ?C 12,7 ?C 12,7 ?C 87 % 1019,0 hPa 0,0 l/m? 6,6 km/h (2 Bft) W 261 ? 0 min 0 W/m? 11,2 ?C 11,3 km/h (2 Bft)
05.09.2026 22:39 13,3 ?C 12,7 ?C 12,8 ?C 87 % 1019,0 hPa 0,0 l/m? 8,3 km/h (2 Bft) W 264 ? 0 min 0 W/m? 11,2 ?C 16,1 km/h (3 Bft)
05.09.2026 22:42 13,2 ?C 12,6 ?C 12,7 ?C 87 % 1019,1 hPa 0,0 l/m? 7,6 km/h (2 Bft) W 263 ? 0 min 0 W/m? 11,1 ?C 12,9 km/h (3 Bft)
05.09.2026 22:45 13,2 ?C 12,5 ?C 12,8 ?C 86 % 1019,1 hPa 0,0 l/m? 8,2 km/h (2 Bft) W 262 ? 0 min 0 W/m? 10,9 ?C 14,5 km/h (3 Bft)
05.09.2026 22:48 13,2 ?C 12,5 ?C 12,8 ?C 86 % 1019,1 hPa 0,0 l/m? 8,9 km/h (2 Bft) W-SW 258 ? 0 min 0 W/m? 10,9 ?C 17,7 km/h (3 Bft)
05.09.2026 22:51 13,2 ?C 12,5 ?C 12,8 ?C 86 % 1019,2 hPa 0,0 l/m? 10,0 km/h (2 Bft) W 268 ? 0 min 0 W/m? 10,9 ?C 19,3 km/h (3 Bft)
05.09.2026 22:54 13,2 ?C 12,5 ?C 12,8 ?C 86 % 1019,2 hPa 0,0 l/m? 10,0 km/h (2 Bft) W 264 ? 0 min 0 W/m? 10,9 ?C 16,1 km/h (3 Bft)
05.09.2026 22:57 13,2 ?C 12,5 ?C 12,8 ?C 86 % 1019,2 hPa 0,0 l/m? 7,9 km/h (2 Bft) W 259 ? 0 min 0 W/m? 10,9 ?C 14,5 km/h (3 Bft)
05.09.2026 23:00 13,2 ?C 12,6 ?C 12,8 ?C 86 % 1019,2 hPa 0,0 l/m? 7,8 km/h (2 Bft) W-SW 258 ? 0 min 0 W/m? 10,9 ?C 14,5 km/h (3 Bft)
05.09.2026 23:03 13,2 ?C 12,6 ?C 12,7 ?C 86 % 1019,3 hPa 0,0 l/m? 4,5 km/h (1 Bft) W 260 ? 0 min 0 W/m? 10,9 ?C 11,3 km/h (2 Bft)
05.09.2026 23:06 13,2 ?C 12,6 ?C 12,5 ?C 85 % 1019,3 hPa 0,0 l/m? 4,7 km/h (1 Bft) W-SW 251 ? 0 min 0 W/m? 10,7 ?C 11,3 km/h (2 Bft)
05.09.2026 23:09 13,1 ?C 12,5 ?C 12,5 ?C 85 % 1019,3 hPa 0,0 l/m? 5,0 km/h (1 Bft) SW 214 ? 0 min 0 W/m? 10,6 ?C 11,3 km/h (2 Bft)
05.09.2026 23:12 13,1 ?C 12,3 ?C 12,4 ?C 85 % 1019,3 hPa 0,0 l/m? 5,2 km/h (1 Bft) S 185 ? 0 min 0 W/m? 10,6 ?C 14,5 km/h (3 Bft)
05.09.2026 23:15 13,0 ?C 12,3 ?C 12,4 ?C 86 % 1019,3 hPa 0,0 l/m? 5,5 km/h (2 Bft) S 185 ? 0 min 0 W/m? 10,7 ?C 11,3 km/h (2 Bft)
05.09.2026 23:18 13,0 ?C 12,3 ?C 12,5 ?C 86 % 1019,4 hPa 0,0 l/m? 5,8 km/h (2 Bft) S 185 ? 0 min 0 W/m? 10,7 ?C 11,3 km/h (2 Bft)
05.09.2026 23:21 13,0 ?C 12,3 ?C 12,4 ?C 86 % 1019,4 hPa 0,0 l/m? 5,6 km/h (2 Bft) S 185 ? 0 min 0 W/m? 10,7 ?C 11,3 km/h (2 Bft)
05.09.2026 23:24 12,9 ?C 12,2 ?C 12,3 ?C 86 % 1019,4 hPa 0,0 l/m? 4,5 km/h (1 Bft) S 185 ? 0 min 0 W/m? 10,6 ?C 11,3 km/h (2 Bft)
05.09.2026 23:27 12,9 ?C 12,2 ?C 12,3 ?C 86 % 1019,5 hPa 0,0 l/m? 5,6 km/h (2 Bft) S 185 ? 0 min 0 W/m? 10,6 ?C 11,3 km/h (2 Bft)
05.09.2026 23:33 12,8 ?C 12,1 ?C 12,3 ?C 86 % 1019,5 hPa 0,0 l/m? 6,7 km/h (2 Bft) W-SW 243 ? 0 min 0 W/m? 10,5 ?C 12,9 km/h (3 Bft)
05.09.2026 23:36 12,8 ?C 12,2 ?C 12,3 ?C 86 % 1019,6 hPa 0,0 l/m? 6,5 km/h (2 Bft) W 262 ? 0 min 0 W/m? 10,5 ?C 11,3 km/h (2 Bft)
05.09.2026 23:39 12,8 ?C 12,2 ?C 12,3 ?C 86 % 1019,7 hPa 0,0 l/m? 6,7 km/h (2 Bft) W-SW 258 ? 0 min 0 W/m? 10,5 ?C 14,5 km/h (3 Bft)
05.09.2026 23:42 12,8 ?C 12,2 ?C 12,3 ?C 86 % 1019,7 hPa 0,0 l/m? 7,8 km/h (2 Bft) W 267 ? 0 min 0 W/m? 10,5 ?C 16,1 km/h (3 Bft)
05.09.2026 23:45 12,8 ?C 12,2 ?C 12,4 ?C 86 % 1019,7 hPa 0,0 l/m? 6,9 km/h (2 Bft) W-SW 258 ? 0 min 0 W/m? 10,5 ?C 12,9 km/h (3 Bft)
05.09.2026 23:48 12,8 ?C 12,2 ?C 12,3 ?C 86 % 1019,7 hPa 0,0 l/m? 6,6 km/h (2 Bft) W-SW 253 ? 0 min 0 W/m? 10,5 ?C 11,3 km/h (2 Bft)
05.09.2026 23:51 12,8 ?C 12,2 ?C 12,3 ?C 86 % 1019,7 hPa 0,0 l/m? 7,1 km/h (2 Bft) W 261 ? 0 min 0 W/m? 10,5 ?C 14,5 km/h (3 Bft)
05.09.2026 23:54 12,8 ?C 12,1 ?C 12,4 ?C 86 % 1019,7 hPa 0,0 l/m? 9,4 km/h (2 Bft) W 270 ? 0 min 0 W/m? 10,5 ?C 14,5 km/h (3 Bft)
05.09.2026 23:57 12,8 ?C 12,2 ?C 12,5 ?C 86 % 1019,8 hPa 0,0 l/m? 9,7 km/h (2 Bft) W 263 ? 0 min 0 W/m? 10,5 ?C 16,1 km/h (3 Bft)
06.09.2026 00:00 12,8 ?C 12,3 ?C 12,5 ?C 86 % 1019,8 hPa 0,0 l/m? 9,2 km/h (2 Bft) W 275 ? 0 min 0 W/m? 10,5 ?C 16,1 km/h (3 Bft)
06.09.2026 00:03 12,9 ?C 12,3 ?C 12,5 ?C 86 % 1019,8 hPa 0,0 l/m? 7,9 km/h (2 Bft) W 267 ? 0 min 0 W/m? 10,6 ?C 14,5 km/h (3 Bft)
06.09.2026 00:06 12,9 ?C 12,2 ?C 12,5 ?C 86 % 1019,8 hPa 0,0 l/m? 7,8 km/h (2 Bft) W 269 ? 0 min 0 W/m? 10,6 ?C 17,7 km/h (3 Bft)
06.09.2026 00:09 12,9 ?C 12,2 ?C 12,5 ?C 86 % 1019,8 hPa 0,0 l/m? 6,9 km/h (2 Bft) W 266 ? 0 min 0 W/m? 10,6 ?C 12,9 km/h (3 Bft)
06.09.2026 00:12 12,9 ?C 12,2 ?C 12,3 ?C 85 % 1019,8 hPa 0,0 l/m? 6,2 km/h (2 Bft) W-SW 258 ? 0 min 0 W/m? 10,4 ?C 14,5 km/h (3 Bft)
06.09.2026 00:15 12,9 ?C 12,1 ?C 12,4 ?C 85 % 1019,8 hPa 0,0 l/m? 7,5 km/h (2 Bft) W 265 ? 0 min 0 W/m? 10,4 ?C 12,9 km/h (3 Bft)
06.09.2026 00:18 12,9 ?C 12,1 ?C 12,4 ?C 85 % 1019,9 hPa 0,0 l/m? 8,5 km/h (2 Bft) W 267 ? 0 min 0 W/m? 10,4 ?C 14,5 km/h (3 Bft)
06.09.2026 00:21 12,9 ?C 12,1 ?C 12,5 ?C 85 % 1019,9 hPa 0,0 l/m? 9,9 km/h (2 Bft) W 265 ? 0 min 0 W/m? 10,4 ?C 17,7 km/h (3 Bft)
06.09.2026 00:24 12,9 ?C 12,1 ?C 12,6 ?C 85 % 1019,9 hPa 0,0 l/m? 10,0 km/h (2 Bft) W 267 ? 0 min 0 W/m? 10,4 ?C 16,1 km/h (3 Bft)
06.09.2026 00:27 12,9 ?C 12,1 ?C 12,6 ?C 85 % 1019,9 hPa 0,0 l/m? 9,8 km/h (2 Bft) W 269 ? 0 min 0 W/m? 10,4 ?C 16,1 km/h (3 Bft)
06.09.2026 00:30 13,0 ?C 12,1 ?C 12,6 ?C 85 % 1019,9 hPa 0,0 l/m? 10,2 km/h (2 Bft) W 269 ? 0 min 0 W/m? 10,5 ?C 16,1 km/h (3 Bft)
06.09.2026 00:33 13,0 ?C 12,2 ?C 12,6 ?C 85 % 1020,0 hPa 0,0 l/m? 8,8 km/h (2 Bft) S-SW 194 ? 0 min 0 W/m? 10,5 ?C 14,5 km/h (3 Bft)
06.09.2026 00:36 13,0 ?C 12,2 ?C 12,5 ?C 85 % 1019,9 hPa 0,0 l/m? 7,0 km/h (2 Bft) W 266 ? 0 min 0 W/m? 10,5 ?C 14,5 km/h (3 Bft)
06.09.2026 00:39 13,0 ?C 12,1 ?C 12,6 ?C 84 % 1020,0 hPa 0,0 l/m? 10,7 km/h (2 Bft) W 264 ? 0 min 0 W/m? 10,4 ?C 19,3 km/h (3 Bft)
06.09.2026 00:42 13,0 ?C 12,0 ?C 12,6 ?C 84 % 1020,0 hPa 0,0 l/m? 10,9 km/h (2 Bft) W 267 ? 0 min 0 W/m? 10,4 ?C 20,9 km/h (4 Bft)
06.09.2026 00:45 13,0 ?C 12,0 ?C 12,5 ?C 84 % 1020,0 hPa 0,0 l/m? 7,8 km/h (2 Bft) W 262 ? 0 min 0 W/m? 10,4 ?C 12,9 km/h (3 Bft)
06.09.2026 00:48 13,0 ?C 12,0 ?C 12,5 ?C 84 % 1020,0 hPa 0,0 l/m? 8,9 km/h (2 Bft) W 260 ? 0 min 0 W/m? 10,4 ?C 14,5 km/h (3 Bft)
06.09.2026 00:51 13,0 ?C 12,1 ?C 12,5 ?C 84 % 1020,0 hPa 0,0 l/m? 10,6 km/h (2 Bft) W 265 ? 0 min 0 W/m? 10,4 ?C 16,1 km/h (3 Bft)
06.09.2026 00:54 13,0 ?C 12,0 ?C 12,5 ?C 84 % 1020,0 hPa 0,0 l/m? 7,9 km/h (2 Bft) W 268 ? 0 min 0 W/m? 10,4 ?C 12,9 km/h (3 Bft)
06.09.2026 00:57 13,0 ?C 12,1 ?C 12,5 ?C 84 % 1020,1 hPa 0,0 l/m? 8,1 km/h (2 Bft) W 271 ? 0 min 0 W/m? 10,4 ?C 12,9 km/h (3 Bft)
06.09.2026 01:00 12,9 ?C 12,0 ?C 12,5 ?C 84 % 1020,1 hPa 0,0 l/m? 8,8 km/h (2 Bft) W 265 ? 0 min 0 W/m? 10,3 ?C 19,3 km/h (3 Bft)
06.09.2026 01:03 13,0 ?C 12,1 ?C 12,7 ?C 84 % 1020,1 hPa 0,0 l/m? 10,7 km/h (2 Bft) W 267 ? 0 min 0 W/m? 10,4 ?C 16,1 km/h (3 Bft)
06.09.2026 01:06 13,0 ?C 12,0 ?C 12,6 ?C 84 % 1020,2 hPa 0,0 l/m? 7,9 km/h (2 Bft) W 266 ? 0 min 0 W/m? 10,4 ?C 16,1 km/h (3 Bft)
06.09.2026 01:09 13,0 ?C 12,0 ?C 12,5 ?C 84 % 1020,2 hPa 0,0 l/m? 9,2 km/h (2 Bft) W 270 ? 0 min 0 W/m? 10,4 ?C 14,5 km/h (3 Bft)
06.09.2026 01:12 13,0 ?C 11,9 ?C 12,5 ?C 84 % 1020,1 hPa 0,0 l/m? 7,9 km/h (2 Bft) W 271 ? 0 min 0 W/m? 10,4 ?C 16,1 km/h (3 Bft)
06.09.2026 01:15 12,9 ?C 11,9 ?C 12,3 ?C 84 % 1020,2 hPa 0,0 l/m? 6,4 km/h (2 Bft) W 264 ? 0 min 0 W/m? 10,3 ?C 17,7 km/h (3 Bft)
06.09.2026 01:18 12,9 ?C 11,9 ?C 12,5 ?C 84 % 1020,2 hPa 0,0 l/m? 8,8 km/h (2 Bft) W 268 ? 0 min 0 W/m? 10,3 ?C 14,5 km/h (3 Bft)
06.09.2026 01:21 12,9 ?C 11,9 ?C 12,4 ?C 84 % 1020,2 hPa 0,0 l/m? 8,2 km/h (2 Bft) W 261 ? 0 min 0 W/m? 10,3 ?C 16,1 km/h (3 Bft)
06.09.2026 01:24 12,9 ?C 11,9 ?C 12,5 ?C 84 % 1020,2 hPa 0,0 l/m? 9,8 km/h (2 Bft) W 262 ? 0 min 0 W/m? 10,3 ?C 16,1 km/h (3 Bft)
06.09.2026 01:27 12,9 ?C 11,9 ?C 12,5 ?C 84 % 1020,3 hPa 0,0 l/m? 9,7 km/h (2 Bft) W 265 ? 0 min 0 W/m? 10,3 ?C 16,1 km/h (3 Bft)
06.09.2026 01:30 12,9 ?C 11,9 ?C 12,5 ?C 84 % 1020,3 hPa 0,0 l/m? 8,6 km/h (2 Bft) W 268 ? 0 min 0 W/m? 10,3 ?C 16,1 km/h (3 Bft)
06.09.2026 01:33 12,9 ?C 11,9 ?C 12,5 ?C 84 % 1020,3 hPa 0,0 l/m? 10,4 km/h (2 Bft) S-SW 199 ? 0 min 0 W/m? 10,3 ?C 19,3 km/h (3 Bft)
06.09.2026 01:36 12,9 ?C 11,9 ?C 12,4 ?C 84 % 1020,3 hPa 0,0 l/m? 7,7 km/h (2 Bft) S 185 ? 0 min 0 W/m? 10,3 ?C 12,9 km/h (3 Bft)
06.09.2026 01:39 12,9 ?C 11,8 ?C 12,4 ?C 84 % 1020,4 hPa 0,0 l/m? 8,8 km/h (2 Bft) S 185 ? 0 min 0 W/m? 10,3 ?C 17,7 km/h (3 Bft)
06.09.2026 01:42 12,9 ?C 11,8 ?C 12,3 ?C 84 % 1020,4 hPa 0,0 l/m? 8,4 km/h (2 Bft) S 186 ? 0 min 0 W/m? 10,3 ?C 16,1 km/h (3 Bft)
06.09.2026 01:45 12,9 ?C 11,8 ?C 12,3 ?C 84 % 1020,4 hPa 0,0 l/m? 9,9 km/h (2 Bft) S 185 ? 0 min 0 W/m? 10,3 ?C 17,7 km/h (3 Bft)
06.09.2026 01:48 12,8 ?C 11,7 ?C 12,4 ?C 84 % 1020,4 hPa 0,0 l/m? 9,3 km/h (2 Bft) S 185 ? 0 min 0 W/m? 10,2 ?C 14,5 km/h (3 Bft)
06.09.2026 01:51 12,8 ?C 11,7 ?C 12,3 ?C 84 % 1020,5 hPa 0,0 l/m? 7,2 km/h (2 Bft) S 185 ? 0 min 0 W/m? 10,2 ?C 16,1 km/h (3 Bft)
06.09.2026 01:54 12,8 ?C 11,7 ?C 12,3 ?C 84 % 1020,5 hPa 0,0 l/m? 9,7 km/h (2 Bft) S 185 ? 0 min 0 W/m? 10,2 ?C 17,7 km/h (3 Bft)
06.09.2026 01:57 12,8 ?C 11,7 ?C 12,4 ?C 84 % 1020,5 hPa 0,0 l/m? 10,1 km/h (2 Bft) S 185 ? 0 min 0 W/m? 10,2 ?C 16,1 km/h (3 Bft)
06.09.2026 02:00 12,8 ?C 11,7 ?C 12,3 ?C 84 % 1020,5 hPa 0,0 l/m? 9,4 km/h (2 Bft) S 185 ? 0 min 0 W/m? 10,2 ?C 17,7 km/h (3 Bft)
06.09.2026 02:03 12,8 ?C 11,7 ?C 12,2 ?C 84 % 1020,5 hPa 0,0 l/m? 7,3 km/h (2 Bft) S 185 ? 0 min 0 W/m? 10,2 ?C 14,5 km/h (3 Bft)
06.09.2026 02:06 12,7 ?C 11,7 ?C 12,0 ?C 84 % 1020,5 hPa 0,0 l/m? 4,9 km/h (1 Bft) S 185 ? 0 min 0 W/m? 10,1 ?C 11,3 km/h (2 Bft)
06.09.2026 02:09 12,7 ?C 11,7 ?C 12,0 ?C 84 % 1020,5 hPa 0,0 l/m? 5,7 km/h (2 Bft) S 185 ? 0 min 0 W/m? 10,1 ?C 14,5 km/h (3 Bft)
06.09.2026 02:12 12,6 ?C 11,5 ?C 11,9 ?C 84 % 1020,6 hPa 0,0 l/m? 5,2 km/h (1 Bft) S 185 ? 0 min 0 W/m? 10,0 ?C 12,9 km/h (3 Bft)
06.09.2026 02:15 12,6 ?C 11,6 ?C 12,0 ?C 84 % 1020,5 hPa 0,0 l/m? 7,7 km/h (2 Bft) S 185 ? 0 min 0 W/m? 10,0 ?C 14,5 km/h (3 Bft)
06.09.2026 02:18 12,6 ?C 11,7 ?C 12,0 ?C 84 % 1020,5 hPa 0,0 l/m? 5,9 km/h (2 Bft) W-SW 248 ? 0 min 0 W/m? 10,0 ?C 14,5 km/h (3 Bft)
06.09.2026 02:21 12,5 ?C 11,6 ?C 11,9 ?C 85 % 1020,5 hPa 0,0 l/m? 6,9 km/h (2 Bft) W 260 ? 0 min 0 W/m? 10,0 ?C 16,1 km/h (3 Bft)
06.09.2026 02:24 12,5 ?C 11,6 ?C 11,9 ?C 85 % 1020,4 hPa 0,0 l/m? 6,9 km/h (2 Bft) W-SW 248 ? 0 min 0 W/m? 10,0 ?C 14,5 km/h (3 Bft)
06.09.2026 02:27 12,5 ?C 11,6 ?C 11,9 ?C 85 % 1020,4 hPa 0,0 l/m? 5,7 km/h (2 Bft) S-SW 197 ? 0 min 0 W/m? 10,0 ?C 11,3 km/h (2 Bft)
06.09.2026 02:30 12,4 ?C 11,5 ?C 11,8 ?C 85 % 1020,5 hPa 0,0 l/m? 4,3 km/h (1 Bft) S-SW 194 ? 0 min 0 W/m? 9,9 ?C 8,0 km/h (2 Bft)
06.09.2026 02:33 12,4 ?C 11,5 ?C 11,9 ?C 85 % 1020,5 hPa 0,0 l/m? 7,4 km/h (2 Bft) SW 222 ? 0 min 0 W/m? 9,9 ?C 14,5 km/h (3 Bft)
06.09.2026 02:36 12,4 ?C 11,6 ?C 12,1 ?C 85 % 1020,5 hPa 0,0 l/m? 9,3 km/h (2 Bft) S 185 ? 0 min 0 W/m? 9,9 ?C 16,1 km/h (3 Bft)
06.09.2026 02:39 12,5 ?C 11,5 ?C 12,0 ?C 85 % 1020,5 hPa 0,0 l/m? 7,0 km/h (2 Bft) W-SW 244 ? 0 min 0 W/m? 10,0 ?C 14,5 km/h (3 Bft)
06.09.2026 02:42 12,5 ?C 11,7 ?C 12,1 ?C 85 % 1020,6 hPa 0,0 l/m? 11,4 km/h (2 Bft) W-SW 254 ? 0 min 0 W/m? 10,0 ?C 22,5 km/h (4 Bft)
06.09.2026 02:45 12,6 ?C 11,6 ?C 12,0 ?C 85 % 1020,6 hPa 0,0 l/m? 6,5 km/h (2 Bft) W-SW 240 ? 0 min 0 W/m? 10,1 ?C 14,5 km/h (3 Bft)
06.09.2026 02:48 12,6 ?C 11,7 ?C 12,1 ?C 85 % 1020,7 hPa 0,0 l/m? 10,5 km/h (2 Bft) SW 223 ? 0 min 0 W/m? 10,1 ?C 20,9 km/h (4 Bft)
06.09.2026 02:51 12,6 ?C 11,7 ?C 12,1 ?C 85 % 1020,7 hPa 0,0 l/m? 8,3 km/h (2 Bft) S 185 ? 0 min 0 W/m? 10,1 ?C 17,7 km/h (3 Bft)
06.09.2026 02:54 12,6 ?C 11,7 ?C 12,0 ?C 85 % 1020,7 hPa 0,0 l/m? 7,7 km/h (2 Bft) W-SW 247 ? 0 min 0 W/m? 10,1 ?C 16,1 km/h (3 Bft)
06.09.2026 02:57 12,6 ?C 11,6 ?C 12,0 ?C 85 % 1020,7 hPa 0,0 l/m? 8,9 km/h (2 Bft) W 274 ? 0 min 0 W/m? 10,1 ?C 17,7 km/h (3 Bft)
06.09.2026 03:00 12,6 ?C 11,5 ?C 12,0 ?C 85 % 1020,8 hPa 0,0 l/m? 8,1 km/h (2 Bft) S-SW 204 ? 0 min 0 W/m? 10,1 ?C 16,1 km/h (3 Bft)
06.09.2026 03:03 12,5 ?C 11,6 ?C 12,1 ?C 85 % 1020,7 hPa 0,0 l/m? 11,9 km/h (2 Bft) W 271 ? 0 min 0 W/m? 10,0 ?C 19,3 km/h (3 Bft)
06.09.2026 03:06 12,5 ?C 11,6 ?C 12,1 ?C 85 % 1020,8 hPa 0,0 l/m? 8,2 km/h (2 Bft) W 264 ? 0 min 0 W/m? 10,0 ?C 17,7 km/h (3 Bft)
06.09.2026 03:09 12,5 ?C 11,6 ?C 12,1 ?C 85 % 1020,7 hPa 0,0 l/m? 11,4 km/h (2 Bft) W 266 ? 0 min 0 W/m? 10,0 ?C 22,5 km/h (4 Bft)
06.09.2026 03:12 12,6 ?C 11,7 ?C 12,2 ?C 85 % 1020,7 hPa 0,0 l/m? 12,1 km/h (2 Bft) W 265 ? 0 min 0 W/m? 10,1 ?C 22,5 km/h (4 Bft)
06.09.2026 03:15 12,6 ?C 11,7 ?C 12,1 ?C 85 % 1020,8 hPa 0,0 l/m? 9,2 km/h (2 Bft) W 268 ? 0 min 0 W/m? 10,1 ?C 17,7 km/h (3 Bft)
06.09.2026 03:18 12,6 ?C 11,6 ?C 12,2 ?C 85 % 1020,8 hPa 0,0 l/m? 11,6 km/h (2 Bft) W 273 ? 0 min 0 W/m? 10,1 ?C 19,3 km/h (3 Bft)
06.09.2026 03:21 12,6 ?C 11,6 ?C 12,2 ?C 85 % 1020,9 hPa 0,0 l/m? 11,7 km/h (2 Bft) W 265 ? 0 min 0 W/m? 10,1 ?C 20,9 km/h (4 Bft)
06.09.2026 03:24 12,6 ?C 11,6 ?C 12,2 ?C 85 % 1020,9 hPa 0,0 l/m? 9,9 km/h (2 Bft) W 264 ? 0 min 0 W/m? 10,1 ?C 22,5 km/h (4 Bft)
06.09.2026 03:27 12,6 ?C 11,6 ?C 12,1 ?C 85 % 1020,9 hPa 0,0 l/m? 8,5 km/h (2 Bft) W 259 ? 0 min 0 W/m? 10,1 ?C 16,1 km/h (3 Bft)
06.09.2026 03:30 12,6 ?C 11,6 ?C 12,2 ?C 85 % 1021,0 hPa 0,0 l/m? 11,8 km/h (2 Bft) W 264 ? 0 min 0 W/m? 10,1 ?C 19,3 km/h (3 Bft)
06.09.2026 03:33 12,6 ?C 11,6 ?C 12,1 ?C 85 % 1021,0 hPa 0,0 l/m? 8,6 km/h (2 Bft) W 262 ? 0 min 0 W/m? 10,1 ?C 19,3 km/h (3 Bft)
06.09.2026 03:36 12,6 ?C 11,6 ?C 12,1 ?C 85 % 1021,1 hPa 0,0 l/m? 9,7 km/h (2 Bft) W 262 ? 0 min 0 W/m? 10,1 ?C 17,7 km/h (3 Bft)
06.09.2026 03:39 12,6 ?C 11,6 ?C 12,1 ?C 84 % 1021,1 hPa 0,0 l/m? 9,8 km/h (2 Bft) W 266 ? 0 min 0 W/m? 10,0 ?C 20,9 km/h (4 Bft)
06.09.2026 03:42 12,6 ?C 11,5 ?C 12,0 ?C 85 % 1021,1 hPa 0,0 l/m? 7,1 km/h (2 Bft) W 267 ? 0 min 0 W/m? 10,1 ?C 16,1 km/h (3 Bft)
06.09.2026 03:45 12,5 ?C 11,6 ?C 12,1 ?C 85 % 1021,1 hPa 0,0 l/m? 9,3 km/h (2 Bft) W 265 ? 0 min 0 W/m? 10,0 ?C 17,7 km/h (3 Bft)
06.09.2026 03:48 12,5 ?C 11,6 ?C 12,0 ?C 85 % 1021,1 hPa 0,0 l/m? 8,5 km/h (2 Bft) W-SW 253 ? 0 min 0 W/m? 10,0 ?C 16,1 km/h (3 Bft)
06.09.2026 03:51 12,5 ?C 11,6 ?C 12,0 ?C 85 % 1021,1 hPa 0,0 l/m? 9,0 km/h (2 Bft) W 263 ? 0 min 0 W/m? 10,0 ?C 14,5 km/h (3 Bft)
06.09.2026 03:54 12,5 ?C 11,6 ?C 11,9 ?C 85 % 1021,1 hPa 0,0 l/m? 8,4 km/h (2 Bft) W 270 ? 0 min 0 W/m? 10,0 ?C 16,1 km/h (3 Bft)
06.09.2026 03:57 12,4 ?C 11,6 ?C 11,9 ?C 85 % 1021,1 hPa 0,0 l/m? 7,3 km/h (2 Bft) W 261 ? 0 min 0 W/m? 9,9 ?C 12,9 km/h (3 Bft)
06.09.2026 04:00 12,4 ?C 11,5 ?C 11,9 ?C 85 % 1021,2 hPa 0,0 l/m? 9,4 km/h (2 Bft) W 268 ? 0 min 0 W/m? 9,9 ?C 17,7 km/h (3 Bft)
06.09.2026 04:03 12,4 ?C 11,5 ?C 12,1 ?C 85 % 1021,2 hPa 0,0 l/m? 11,1 km/h (2 Bft) W 268 ? 0 min 0 W/m? 9,9 ?C 20,9 km/h (4 Bft)
06.09.2026 04:06 12,4 ?C 11,5 ?C 12,0 ?C 85 % 1021,3 hPa 0,0 l/m? 9,2 km/h (2 Bft) W 269 ? 0 min 0 W/m? 9,9 ?C 14,5 km/h (3 Bft)
06.09.2026 04:09 12,4 ?C 11,5 ?C 11,9 ?C 85 % 1021,2 hPa 0,0 l/m? 7,4 km/h (2 Bft) W-SW 257 ? 0 min 0 W/m? 9,9 ?C 16,1 km/h (3 Bft)
06.09.2026 04:12 12,4 ?C 11,4 ?C 11,9 ?C 85 % 1021,1 hPa 0,0 l/m? 10,3 km/h (2 Bft) SW 229 ? 0 min 0 W/m? 9,9 ?C 19,3 km/h (3 Bft)
06.09.2026 04:15 12,3 ?C 11,5 ?C 11,9 ?C 85 % 1021,2 hPa 0,0 l/m? 8,5 km/h (2 Bft) W 266 ? 0 min 0 W/m? 9,9 ?C 17,7 km/h (3 Bft)
06.09.2026 04:18 12,3 ?C 11,5 ?C 11,8 ?C 85 % 1021,2 hPa 0,0 l/m? 7,9 km/h (2 Bft) W 269 ? 0 min 0 W/m? 9,9 ?C 16,1 km/h (3 Bft)
06.09.2026 04:21 12,3 ?C 11,4 ?C 11,8 ?C 85 % 1021,3 hPa 0,0 l/m? 8,2 km/h (2 Bft) W 260 ? 0 min 0 W/m? 9,9 ?C 17,7 km/h (3 Bft)
06.09.2026 04:24 12,3 ?C 11,4 ?C 11,8 ?C 86 % 1021,3 hPa 0,0 l/m? 7,6 km/h (2 Bft) SW 235 ? 0 min 0 W/m? 10,0 ?C 16,1 km/h (3 Bft)
06.09.2026 04:27 12,3 ?C 11,4 ?C 11,8 ?C 86 % 1021,3 hPa 0,0 l/m? 7,8 km/h (2 Bft) S-SW 199 ? 0 min 0 W/m? 10,0 ?C 14,5 km/h (3 Bft)
06.09.2026 04:30 12,3 ?C 11,4 ?C 11,7 ?C 86 % 1021,3 hPa 0,0 l/m? 7,7 km/h (2 Bft) W-SW 240 ? 0 min 0 W/m? 10,0 ?C 14,5 km/h (3 Bft)
06.09.2026 04:33 12,3 ?C 11,5 ?C 11,7 ?C 86 % 1021,3 hPa 0,0 l/m? 7,9 km/h (2 Bft) S-SW 203 ? 0 min 0 W/m? 10,0 ?C 14,5 km/h (3 Bft)
06.09.2026 04:36 12,3 ?C 11,5 ?C 11,8 ?C 86 % 1021,3 hPa 0,0 l/m? 9,0 km/h (2 Bft) S 185 ? 0 min 0 W/m? 10,0 ?C 14,5 km/h (3 Bft)
06.09.2026 04:39 12,3 ?C 11,5 ?C 11,7 ?C 86 % 1021,4 hPa 0,0 l/m? 8,2 km/h (2 Bft) S-SW 195 ? 0 min 0 W/m? 10,0 ?C 16,1 km/h (3 Bft)
06.09.2026 04:42 12,3 ?C 11,5 ?C 11,8 ?C 86 % 1021,4 hPa 0,0 l/m? 9,2 km/h (2 Bft) S-SW 193 ? 0 min 0 W/m? 10,0 ?C 19,3 km/h (3 Bft)
06.09.2026 04:45 12,3 ?C 11,5 ?C 11,7 ?C 86 % 1021,4 hPa 0,0 l/m? 7,5 km/h (2 Bft) SW 223 ? 0 min 0 W/m? 10,0 ?C 12,9 km/h (3 Bft)
06.09.2026 04:48 12,2 ?C 11,5 ?C 11,7 ?C 86 % 1021,4 hPa 0,0 l/m? 7,2 km/h (2 Bft) SW 235 ? 0 min 0 W/m? 9,9 ?C 17,7 km/h (3 Bft)
06.09.2026 04:51 12,2 ?C 11,5 ?C 11,7 ?C 86 % 1021,4 hPa 0,0 l/m? 9,1 km/h (2 Bft) S-SW 203 ? 0 min 0 W/m? 9,9 ?C 14,5 km/h (3 Bft)
06.09.2026 04:54 12,2 ?C 11,4 ?C 11,7 ?C 86 % 1021,4 hPa 0,0 l/m? 8,7 km/h (2 Bft) SW 219 ? 0 min 0 W/m? 9,9 ?C 20,9 km/h (4 Bft)
06.09.2026 04:57 12,2 ?C 11,5 ?C 11,7 ?C 86 % 1021,4 hPa 0,0 l/m? 9,4 km/h (2 Bft) SW 224 ? 0 min 0 W/m? 9,9 ?C 19,3 km/h (3 Bft)
06.09.2026 05:00 12,2 ?C 11,5 ?C 11,6 ?C 86 % 1021,4 hPa 0,0 l/m? 8,5 km/h (2 Bft) W 263 ? 0 min 0 W/m? 9,9 ?C 20,9 km/h (4 Bft)
06.09.2026 05:03 12,2 ?C 11,4 ?C 11,8 ?C 86 % 1021,5 hPa 0,0 l/m? 10,5 km/h (2 Bft) W 266 ? 0 min 0 W/m? 9,9 ?C 17,7 km/h (3 Bft)
06.09.2026 05:06 12,2 ?C 11,5 ?C 11,8 ?C 86 % 1021,6 hPa 0,0 l/m? 10,9 km/h (2 Bft) W 267 ? 0 min 0 W/m? 9,9 ?C 20,9 km/h (4 Bft)
06.09.2026 05:09 12,2 ?C 11,5 ?C 11,8 ?C 86 % 1021,6 hPa 0,0 l/m? 9,8 km/h (2 Bft) SW 232 ? 0 min 0 W/m? 9,9 ?C 17,7 km/h (3 Bft)
06.09.2026 05:12 12,2 ?C 11,4 ?C 11,7 ?C 86 % 1021,7 hPa 0,0 l/m? 9,3 km/h (2 Bft) SW 223 ? 0 min 0 W/m? 9,9 ?C 20,9 km/h (4 Bft)
06.09.2026 05:15 12,2 ?C 11,4 ?C 11,7 ?C 86 % 1021,8 hPa 0,0 l/m? 8,5 km/h (2 Bft) S 190 ? 0 min 0 W/m? 9,9 ?C 19,3 km/h (3 Bft)
06.09.2026 05:18 12,2 ?C 11,5 ?C 11,7 ?C 86 % 1021,8 hPa 0,0 l/m? 9,7 km/h (2 Bft) S 185 ? 0 min 0 W/m? 9,9 ?C 14,5 km/h (3 Bft)
06.09.2026 05:21 12,2 ?C 11,4 ?C 11,7 ?C 86 % 1021,8 hPa 0,0 l/m? 8,6 km/h (2 Bft) S 185 ? 0 min 0 W/m? 9,9 ?C 19,3 km/h (3 Bft)
06.09.2026 05:24 12,1 ?C 11,4 ?C 11,6 ?C 86 % 1021,9 hPa 0,0 l/m? 8,3 km/h (2 Bft) S-SW 192 ? 0 min 0 W/m? 9,8 ?C 16,1 km/h (3 Bft)
06.09.2026 05:27 12,1 ?C 11,5 ?C 11,7 ?C 86 % 1021,9 hPa 0,0 l/m? 11,9 km/h (2 Bft) S-SW 197 ? 0 min 0 W/m? 9,8 ?C 17,7 km/h (3 Bft)
06.09.2026 05:30 12,1 ?C 11,4 ?C 11,7 ?C 86 % 1021,9 hPa 0,0 l/m? 11,0 km/h (2 Bft) S 187 ? 0 min 0 W/m? 9,8 ?C 19,3 km/h (3 Bft)
06.09.2026 05:33 12,1 ?C 11,5 ?C 11,7 ?C 86 % 1021,9 hPa 0,0 l/m? 10,9 km/h (2 Bft) W-SW 250 ? 0 min 0 W/m? 9,8 ?C 20,9 km/h (4 Bft)
06.09.2026 05:36 12,1 ?C 11,4 ?C 11,7 ?C 86 % 1021,9 hPa 0,0 l/m? 11,1 km/h (2 Bft) W 272 ? 0 min 0 W/m? 9,8 ?C 17,7 km/h (3 Bft)
06.09.2026 05:39 12,1 ?C 11,4 ?C 11,7 ?C 86 % 1021,9 hPa 0,0 l/m? 10,7 km/h (2 Bft) W 269 ? 0 min 0 W/m? 9,8 ?C 17,7 km/h (3 Bft)
06.09.2026 05:42 12,1 ?C 11,3 ?C 11,6 ?C 86 % 1022,0 hPa 0,0 l/m? 7,8 km/h (2 Bft) W 267 ? 0 min 0 W/m? 9,8 ?C 14,5 km/h (3 Bft)
06.09.2026 05:45 12,1 ?C 11,3 ?C 11,5 ?C 86 % 1022,0 hPa 0,0 l/m? 10,5 km/h (2 Bft) S-SW 205 ? 0 min 0 W/m? 9,8 ?C 17,7 km/h (3 Bft)
06.09.2026 05:48 12,0 ?C 11,3 ?C 11,6 ?C 86 % 1022,0 hPa 0,0 l/m? 11,5 km/h (2 Bft) W 262 ? 0 min 0 W/m? 9,7 ?C 19,3 km/h (3 Bft)
06.09.2026 05:51 12,0 ?C 11,3 ?C 11,5 ?C 86 % 1022,0 hPa 0,0 l/m? 8,7 km/h (2 Bft) SW 233 ? 0 min 0 W/m? 9,7 ?C 14,5 km/h (3 Bft)
06.09.2026 05:54 12,0 ?C 11,3 ?C 11,5 ?C 86 % 1022,0 hPa 0,0 l/m? 12,1 km/h (2 Bft) S 191 ? 0 min 0 W/m? 9,7 ?C 17,7 km/h (3 Bft)
06.09.2026 05:57 12,0 ?C 11,3 ?C 11,6 ?C 86 % 1022,0 hPa 0,0 l/m? 10,4 km/h (2 Bft) W 259 ? 0 min 0 W/m? 9,7 ?C 17,7 km/h (3 Bft)
06.09.2026 06:00 12,0 ?C 11,3 ?C 11,5 ?C 86 % 1022,0 hPa 0,0 l/m? 8,7 km/h (2 Bft) S-SW 195 ? 0 min 0 W/m? 9,7 ?C 12,9 km/h (3 Bft)
06.09.2026 06:03 11,9 ?C 11,3 ?C 11,4 ?C 86 % 1022,1 hPa 0,0 l/m? 7,7 km/h (2 Bft) S-SW 195 ? 0 min 0 W/m? 9,6 ?C 14,5 km/h (3 Bft)
06.09.2026 06:06 11,9 ?C 11,2 ?C 11,4 ?C 86 % 1022,1 hPa 0,0 l/m? 10,5 km/h (2 Bft) S-SW 203 ? 0 min 0 W/m? 9,6 ?C 17,7 km/h (3 Bft)
06.09.2026 06:09 11,8 ?C 11,2 ?C 11,3 ?C 87 % 1022,1 hPa 0,0 l/m? 8,0 km/h (2 Bft) S 190 ? 0 min 2 W/m? 9,7 ?C 14,5 km/h (3 Bft)
06.09.2026 06:12 11,8 ?C 11,2 ?C 11,2 ?C 87 % 1022,2 hPa 0,0 l/m? 5,6 km/h (2 Bft) S 190 ? 0 min 2 W/m? 9,7 ?C 12,9 km/h (3 Bft)
06.09.2026 06:15 11,8 ?C 11,1 ?C 11,2 ?C 87 % 1022,3 hPa 0,0 l/m? 6,2 km/h (2 Bft) W-SW 246 ? 0 min 2 W/m? 9,7 ?C 12,9 km/h (3 Bft)
06.09.2026 06:18 11,7 ?C 11,1 ?C 11,2 ?C 87 % 1022,3 hPa 0,0 l/m? 6,4 km/h (2 Bft) W 260 ? 0 min 4 W/m? 9,6 ?C 12,9 km/h (3 Bft)
06.09.2026 06:21 11,6 ?C 11,0 ?C 11,2 ?C 87 % 1022,3 hPa 0,0 l/m? 8,3 km/h (2 Bft) W 259 ? 0 min 4 W/m? 9,5 ?C 17,7 km/h (3 Bft)
06.09.2026 06:24 11,6 ?C 11,0 ?C 11,2 ?C 87 % 1022,4 hPa 0,0 l/m? 6,4 km/h (2 Bft) W 260 ? 0 min 5 W/m? 9,5 ?C 12,9 km/h (3 Bft)
06.09.2026 06:27 11,6 ?C 11,0 ?C 11,2 ?C 87 % 1022,4 hPa 0,0 l/m? 7,1 km/h (2 Bft) W-SW 238 ? 0 min 6 W/m? 9,5 ?C 12,9 km/h (3 Bft)
06.09.2026 06:30 11,6 ?C 11,0 ?C 11,2 ?C 87 % 1022,5 hPa 0,0 l/m? 6,5 km/h (2 Bft) S 186 ? 0 min 8 W/m? 9,5 ?C 14,5 km/h (3 Bft)
06.09.2026 06:33 11,6 ?C 11,1 ?C 11,3 ?C 87 % 1022,5 hPa 0,0 l/m? 6,0 km/h (2 Bft) S 185 ? 3 min 10 W/m? 9,5 ?C 12,9 km/h (3 Bft)
06.09.2026 06:36 11,6 ?C 11,0 ?C 11,5 ?C 87 % 1022,5 hPa 0,0 l/m? 7,4 km/h (2 Bft) S 185 ? 0 min 13 W/m? 9,5 ?C 14,5 km/h (3 Bft)
06.09.2026 06:39 11,5 ?C 11,0 ?C 11,7 ?C 87 % 1022,5 hPa 0,0 l/m? 7,2 km/h (2 Bft) S 186 ? 0 min 18 W/m? 9,4 ?C 12,9 km/h (3 Bft)
06.09.2026 06:42 11,6 ?C 11,0 ?C 12,1 ?C 87 % 1022,5 hPa 0,0 l/m? 6,2 km/h (2 Bft) S 187 ? 3 min 23 W/m? 9,5 ?C 12,9 km/h (3 Bft)
06.09.2026 06:45 11,5 ?C 11,1 ?C 12,5 ?C 87 % 1022,6 hPa 0,0 l/m? 8,3 km/h (2 Bft) SW 234 ? 3 min 28 W/m? 9,4 ?C 17,7 km/h (3 Bft)
06.09.2026 06:48 11,5 ?C 11,1 ?C 13,0 ?C 87 % 1022,6 hPa 0,0 l/m? 8,0 km/h (2 Bft) W 259 ? 3 min 33 W/m? 9,4 ?C 14,5 km/h (3 Bft)
06.09.2026 06:51 11,5 ?C 11,1 ?C 13,6 ?C 88 % 1022,7 hPa 0,0 l/m? 7,2 km/h (2 Bft) W-SW 249 ? 3 min 40 W/m? 9,6 ?C 14,5 km/h (3 Bft)
06.09.2026 06:54 11,5 ?C 11,2 ?C 14,2 ?C 88 % 1022,6 hPa 0,0 l/m? 6,5 km/h (2 Bft) W-SW 249 ? 3 min 42 W/m? 9,6 ?C 14,5 km/h (3 Bft)
06.09.2026 06:57 11,5 ?C 11,2 ?C 14,9 ?C 87 % 1022,6 hPa 0,0 l/m? 4,4 km/h (1 Bft) W-SW 247 ? 0 min 29 W/m? 9,4 ?C 6,4 km/h (2 Bft)
06.09.2026 07:00 11,5 ?C 11,2 ?C 15,2 ?C 88 % 1022,6 hPa 0,0 l/m? 6,6 km/h (2 Bft) W 259 ? 0 min 29 W/m? 9,6 ?C 12,9 km/h (3 Bft)
06.09.2026 07:03 11,5 ?C 11,3 ?C 15,6 ?C 88 % 1022,7 hPa 0,0 l/m? 5,7 km/h (2 Bft) W-SW 251 ? 0 min 31 W/m? 9,6 ?C 12,9 km/h (3 Bft)
06.09.2026 07:06 11,5 ?C 11,2 ?C 16,3 ?C 88 % 1022,7 hPa 0,0 l/m? 5,2 km/h (1 Bft) S-SW 197 ? 0 min 32 W/m? 9,6 ?C 8,0 km/h (2 Bft)
06.09.2026 07:09 11,5 ?C 11,2 ?C 16,7 ?C 88 % 1022,7 hPa 0,0 l/m? 5,8 km/h (2 Bft) W-SW 240 ? 0 min 33 W/m? 9,6 ?C 12,9 km/h (3 Bft)
06.09.2026 07:12 11,5 ?C 11,3 ?C 16,8 ?C 88 % 1022,7 hPa 0,0 l/m? 7,7 km/h (2 Bft) S-SW 195 ? 0 min 35 W/m? 9,6 ?C 17,7 km/h (3 Bft)
06.09.2026 07:15 11,6 ?C 11,4 ?C 17,8 ?C 88 % 1022,7 hPa 0,0 l/m? 4,8 km/h (1 Bft) SW 228 ? 0 min 35 W/m? 9,7 ?C 11,3 km/h (2 Bft)
06.09.2026 07:18 11,7 ?C 11,4 ?C 17,8 ?C 88 % 1022,7 hPa 0,0 l/m? 5,5 km/h (2 Bft) W-SW 251 ? 0 min 36 W/m? 9,8 ?C 12,9 km/h (3 Bft)
06.09.2026 07:21 11,7 ?C 11,4 ?C 18,1 ?C 88 % 1022,8 hPa 0,0 l/m? 8,4 km/h (2 Bft) W-SW 255 ? 0 min 40 W/m? 9,8 ?C 19,3 km/h (3 Bft)
06.09.2026 07:24 11,8 ?C 11,5 ?C 18,3 ?C 88 % 1022,8 hPa 0,0 l/m? 8,7 km/h (2 Bft) W-SW 253 ? 0 min 43 W/m? 9,9 ?C 16,1 km/h (3 Bft)
06.09.2026 07:27 11,9 ?C 11,6 ?C 18,8 ?C 88 % 1022,8 hPa 0,0 l/m? 9,5 km/h (2 Bft) W 262 ? 0 min 45 W/m? 10,0 ?C 17,7 km/h (3 Bft)
06.09.2026 07:30 11,9 ?C 11,6 ?C 19,2 ?C 88 % 1022,8 hPa 0,0 l/m? 9,5 km/h (2 Bft) W-SW 258 ? 0 min 47 W/m? 10,0 ?C 17,7 km/h (3 Bft)
06.09.2026 07:33 12,0 ?C 11,7 ?C 19,5 ?C 88 % 1022,8 hPa 0,0 l/m? 7,9 km/h (2 Bft) W-SW 256 ? 0 min 49 W/m? 10,1 ?C 19,3 km/h (3 Bft)
06.09.2026 07:36 12,1 ?C 11,8 ?C 20,4 ?C 87 % 1023,0 hPa 0,0 l/m? 8,8 km/h (2 Bft) W-SW 256 ? 0 min 50 W/m? 10,0 ?C 17,7 km/h (3 Bft)
06.09.2026 07:39 12,2 ?C 11,9 ?C 19,2 ?C 87 % 1023,0 hPa 0,0 l/m? 8,4 km/h (2 Bft) W 267 ? 0 min 46 W/m? 10,1 ?C 16,1 km/h (3 Bft)
06.09.2026 07:42 12,3 ?C 11,9 ?C 18,4 ?C 87 % 1023,0 hPa 0,0 l/m? 9,4 km/h (2 Bft) W 259 ? 0 min 45 W/m? 10,2 ?C 17,7 km/h (3 Bft)
06.09.2026 07:45 12,3 ?C 11,9 ?C 18,4 ?C 87 % 1023,0 hPa 0,0 l/m? 6,4 km/h (2 Bft) W 265 ? 0 min 48 W/m? 10,2 ?C 16,1 km/h (3 Bft)
06.09.2026 07:48 12,3 ?C 12,0 ?C 18,8 ?C 87 % 1023,1 hPa 0,0 l/m? 8,1 km/h (2 Bft) W 274 ? 0 min 48 W/m? 10,2 ?C 16,1 km/h (3 Bft)
06.09.2026 07:51 12,4 ?C 12,1 ?C 20,8 ?C 86 % 1023,1 hPa 0,0 l/m? 7,4 km/h (2 Bft) W 273 ? 0 min 74 W/m? 10,1 ?C 16,1 km/h (3 Bft)
06.09.2026 07:54 12,5 ?C 12,2 ?C 21,6 ?C 86 % 1023,2 hPa 0,0 l/m? 10,3 km/h (2 Bft) W 263 ? 0 min 92 W/m? 10,2 ?C 16,1 km/h (3 Bft)
06.09.2026 07:57 12,6 ?C 12,3 ?C 20,5 ?C 86 % 1023,2 hPa 0,0 l/m? 12,9 km/h (3 Bft) W 267 ? 0 min 76 W/m? 10,3 ?C 19,3 km/h (3 Bft)
06.09.2026 08:00 12,7 ?C 12,3 ?C 19,7 ?C 86 % 1023,2 hPa 0,0 l/m? 11,6 km/h (2 Bft) W 265 ? 0 min 111 W/m? 10,4 ?C 22,5 km/h (4 Bft)
06.09.2026 08:03 12,8 ?C 12,5 ?C 21,7 ?C 86 % 1023,3 hPa 0,0 l/m? 8,1 km/h (2 Bft) W 270 ? 0 min 138 W/m? 10,5 ?C 16,1 km/h (3 Bft)
06.09.2026 08:06 12,9 ?C 12,8 ?C 22,7 ?C 86 % 1023,3 hPa 0,0 l/m? 4,4 km/h (1 Bft) W 269 ? 3 min 207 W/m? 10,6 ?C 9,7 km/h (2 Bft)
06.09.2026 08:09 13,0 ?C 13,1 ?C 23,4 ?C 85 % 1023,4 hPa 0,0 l/m? 8,5 km/h (2 Bft) W 260 ? 3 min 221 W/m? 10,5 ?C 17,7 km/h (3 Bft)
06.09.2026 08:12 13,2 ?C 13,8 ?C 22,9 ?C 85 % 1023,4 hPa 0,0 l/m? 7,6 km/h (2 Bft) W 263 ? 3 min 207 W/m? 10,7 ?C 22,5 km/h (4 Bft)
06.09.2026 08:15 13,2 ?C 14,1 ?C 22,5 ?C 85 % 1023,3 hPa 0,0 l/m? 10,7 km/h (2 Bft) W 265 ? 3 min 229 W/m? 10,7 ?C 19,3 km/h (3 Bft)
06.09.2026 08:18 13,3 ?C 14,3 ?C 21,7 ?C 84 % 1023,4 hPa 0,0 l/m? 9,8 km/h (2 Bft) W 263 ? 3 min 217 W/m? 10,7 ?C 19,3 km/h (3 Bft)
06.09.2026 08:21 13,4 ?C 14,7 ?C 23,5 ?C 84 % 1023,4 hPa 0,0 l/m? 10,0 km/h (2 Bft) W 260 ? 3 min 257 W/m? 10,8 ?C 19,3 km/h (3 Bft)
06.09.2026 08:24 13,5 ?C 15,1 ?C 22,6 ?C 84 % 1023,5 hPa 0,0 l/m? 13,2 km/h (3 Bft) W 262 ? 3 min 259 W/m? 10,8 ?C 25,7 km/h (4 Bft)
06.09.2026 08:27 13,6 ?C 15,6 ?C 23,2 ?C 83 % 1023,6 hPa 0,0 l/m? 10,7 km/h (2 Bft) W 277 ? 3 min 266 W/m? 10,8 ?C 17,7 km/h (3 Bft)
06.09.2026 08:30 13,7 ?C 16,3 ?C 24,5 ?C 83 % 1023,6 hPa 0,0 l/m? 9,2 km/h (2 Bft) W 264 ? 3 min 296 W/m? 10,9 ?C 17,7 km/h (3 Bft)
06.09.2026 08:33 13,8 ?C 16,7 ?C 23,2 ?C 83 % 1023,6 hPa 0,0 l/m? 10,8 km/h (2 Bft) W 272 ? 3 min 246 W/m? 11,0 ?C 17,7 km/h (3 Bft)
06.09.2026 08:36 13,8 ?C 16,9 ?C 23,6 ?C 83 % 1023,7 hPa 0,0 l/m? 9,0 km/h (2 Bft) W 271 ? 3 min 251 W/m? 11,0 ?C 17,7 km/h (3 Bft)
06.09.2026 08:39 14,0 ?C 17,4 ?C 24,7 ?C 83 % 1023,7 hPa 0,0 l/m? 11,4 km/h (2 Bft) W 265 ? 3 min 292 W/m? 11,2 ?C 20,9 km/h (4 Bft)
_ Min-Zeit 06:39 06:21 06:12 13:03 09:00 - 19:54 - - - - 06:39 20:09
Minimum _ 11,5 ?C 11,0 ?C 11,2 ?C 55 % 1013,8 hPa - 2,1 km/h (1 Bft) - - - - 9,4 ?C 4,8 km/h (1 Bft)
_ Max-Zeit 13:00 15:09 09:36 20:18 08:36 17:18 17:12 - - 11:36 12:21 13:30 16:15
Maximum _ 21,3 ?C 26,1 ?C 28,3 ?C 89 % 1023,7 hPa 2,4 l/m? 29,5 km/h
W-NW (5 Bft)
- - 6 min 877 W/m? 14,1 ?C 51,5 km/h
W (7 Bft)
Durchschnitt _ 15,3 ?C 16,1 ?C 17,0 ?C 80 % 1017,6 hPa #6,0 l/m? 11,3 km/h (2 Bft) W - #54 min. 86 W/m? 11,6 ?C 21,2 km/h (4 Bft)